GFSWCAN_prec_precacc_198.txt.gz
Total_Precipitation_Accumulation
1.29 1.34 1.50 1.30 1.04 0.74 0.72 0.72 1.15 1.61 1.43 1.29 1.30 0.98 0.93 0.66 0.58 0.74 0.46 0.54 0.85 0.62 0.16 0.05 0.05 0.15 0.44 0.40 0.34 0.38 0.48 0.36 0.46 0.47 0.32 0.14 0.04 0.01 0.00 0.00 0.00 0.04 0.08 0.10 0.15 0.20 0.02 0.00 0.00 0.01 0.01 0.00 0.00 0.01
1.25 1.27 1.21 1.17 1.23 1.34 0.95 0.92 1.20 1.43 1.21 1.02 0.86 0.75 0.74 0.63 0.60 0.88 0.66 0.42 0.66 0.74 0.35 0.08 0.06 0.07 0.26 0.38 0.45 0.43 0.47 0.36 0.48 0.47 0.30 0.12 0.04 0.02 0.01 0.01 0.00 0.00 0.01 0.00 0.00 0.00 0.00 0.00 0.00 0.00 0.00 0.00 0.00 0.00
1.79 1.52 1.31 1.12 0.86 1.00 1.48 1.63 1.47 1.34 1.02 0.85 0.68 0.60 0.65 0.63 0.64 1.00 0.70 0.55 0.80 0.82 0.39 0.14 0.08 0.03 0.10 0.22 0.39 0.49 0.41 0.32 0.46 0.41 0.62 0.32 0.14 0.02 0.01 0.00 0.00 0.00 0.00 0.00 0.00 0.00 0.00 0.00 0.00 0.00 0.00 0.00 0.00 0.00
2.20 1.74 1.45 1.43 1.34 0.96 1.12 1.80 1.93 1.63 1.23 0.86 0.66 0.62 0.53 0.57 0.72 0.99 0.62 0.50 0.82 1.22 1.15 0.29 0.04 0.01 0.04 0.19 0.30 0.36 0.52 0.38 0.41 0.54 0.70 0.75 0.38 0.07 0.03 0.00 0.00 0.00 0.00 0.00 0.00 0.00 0.00 0.00 0.00 0.00 0.00 0.00 0.00 0.00
2.74 2.37 1.74 1.39 1.49 1.62 1.29 1.33 1.32 1.25 1.13 0.73 0.61 0.66 0.66 0.73 0.93 0.89 0.64 0.59 0.61 1.10 1.35 0.51 0.14 0.04 0.03 0.17 0.34 0.39 0.52 0.79 0.76 0.91 0.90 0.60 0.33 0.19 0.14 0.11 0.05 0.00 0.00 0.01 0.01 0.00 0.00 0.01 0.00 0.00 0.01 0.01 0.00 0.00
3.09 3.16 2.94 2.13 1.55 1.50 1.67 1.36 1.27 1.10 0.96 0.63 0.62 0.78 0.87 0.89 1.42 1.54 2.44 1.49 0.74 0.93 2.03 1.49 0.53 0.17 0.10 0.23 0.43 0.57 0.57 0.67 1.09 1.28 1.04 0.59 0.23 0.38 0.83 0.32 0.01 0.00 0.00 0.00 0.01 0.01 0.02 0.02 0.01 0.00 0.00 0.00 0.00 0.00
2.61 2.95 3.62 3.68 2.62 2.04 2.10 1.53 1.31 1.17 1.03 0.80 0.83 0.86 0.86 1.10 1.43 1.83 2.32 1.31 0.93 1.20 2.56 2.35 1.53 0.57 0.25 0.35 0.65 0.80 0.81 0.88 1.10 1.50 1.08 0.65 0.38 0.76 1.20 0.43 0.02 0.00 0.00 0.00 0.01 0.02 0.02 0.01 0.01 0.00 0.00 0.00 0.00 0.00
2.16 2.39 2.82 3.81 3.98 3.34 2.65 1.89 1.45 1.35 1.25 1.08 1.11 1.13 1.26 1.76 2.04 1.90 1.25 0.93 1.09 1.72 2.75 2.90 1.75 0.77 0.53 0.63 0.93 0.95 0.95 1.02 1.18 1.34 0.92 0.46 0.51 0.89 0.89 0.12 0.01 0.01 0.01 0.01 0.01 0.01 0.01 0.01 0.01 0.02 0.02 0.01 0.00 0.00
1.97 1.91 2.06 2.62 2.94 3.43 3.56 3.21 2.18 1.70 1.70 1.78 2.09 2.41 2.90 2.84 2.26 1.80 1.46 1.59 1.58 2.72 4.44 2.81 1.02 0.70 0.70 0.54 0.70 0.82 1.01 1.28 1.29 0.97 0.79 0.64 0.60 0.61 0.23 0.03 0.00 0.00 0.01 0.01 0.01 0.00 0.00 0.00 0.00 0.00 0.01 0.01 0.02 0.04
1.86 1.68 1.61 1.97 1.72 2.09 2.91 3.14 3.24 2.67 2.56 3.17 3.44 3.68 3.75 2.99 2.40 2.50 3.38 4.37 5.00 4.45 3.21 1.71 0.50 0.46 0.64 0.55 0.81 0.94 1.02 1.11 1.10 0.66 0.57 0.87 0.45 0.16 0.07 0.02 0.00 0.01 0.01 0.02 0.01 0.02 0.01 0.02 0.02 0.01 0.02 0.01 0.02 0.03
1.53 1.54 1.41 1.81 1.38 1.38 1.94 3.14 3.24 3.24 3.69 3.88 3.56 3.02 3.00 2.67 3.33 4.19 4.76 4.43 4.06 3.33 2.01 0.77 0.43 0.39 0.50 0.58 0.88 1.08 1.35 1.15 0.98 0.46 0.55 0.68 0.31 0.12 0.09 0.06 0.02 0.01 0.02 0.01 0.01 0.03 0.05 0.05 0.05 0.04 0.05 0.06 0.05 0.04
1.42 1.37 1.36 1.72 1.31 1.30 1.44 2.27 3.09 3.68 3.91 3.33 2.62 2.69 3.37 3.73 4.34 4.16 3.30 2.06 1.62 1.09 0.83 0.51 0.34 0.38 0.65 0.90 1.25 1.60 1.38 1.25 0.78 0.47 0.76 0.29 0.06 0.02 0.06 0.09 0.10 0.08 0.05 0.04 0.03 0.03 0.07 0.16 0.20 0.19 0.16 0.13 0.10 0.08
1.64 1.42 1.46 1.73 1.34 1.40 1.56 1.79 1.96 2.98 3.27 3.36 3.54 3.92 3.67 3.31 3.08 2.27 1.36 0.89 0.70 0.52 0.46 0.39 0.43 0.59 0.78 1.08 1.79 1.66 1.55 1.04 0.55 0.64 0.38 0.07 0.03 0.10 0.15 0.08 0.04 0.03 0.05 0.14 0.24 0.30 0.25 0.20 0.15 0.18 0.27 0.23 0.19 0.13
1.79 1.54 1.72 1.92 1.58 1.65 1.83 1.93 2.23 2.95 3.50 4.26 4.07 3.74 2.48 1.83 0.90 0.43 0.29 0.27 0.18 0.22 0.25 0.32 0.61 0.73 0.79 1.08 1.34 1.46 0.92 0.68 0.73 0.42 0.15 0.10 0.11 0.18 0.18 0.14 0.09 0.04 0.03 0.08 0.11 0.17 0.22 0.24 0.24 0.21 0.21 0.22 0.20 0.20
1.97 1.99 2.44 2.45 2.11 2.05 1.95 2.30 2.99 3.28 3.74 3.89 3.39 2.23 1.27 0.65 0.39 0.35 0.26 0.26 0.34 0.36 0.48 0.60 0.86 0.84 1.07 1.36 1.10 0.95 1.01 0.57 0.13 0.03 0.06 0.11 0.22 0.32 0.35 0.30 0.19 0.11 0.08 0.09 0.09 0.16 0.23 0.08 0.05 0.13 0.22 0.25 0.16 0.12
2.51 3.18 3.31 2.65 2.39 2.45 2.49 3.36 4.43 4.35 4.35 3.60 2.87 1.63 0.74 0.43 0.40 0.42 0.40 0.44 0.52 0.57 0.71 1.14 1.31 1.27 1.28 1.09 0.96 0.61 0.53 0.24 0.16 0.23 0.31 0.33 0.50 0.54 0.47 0.31 0.20 0.16 0.13 0.15 0.25 0.38 0.23 0.05 0.02 0.03 0.07 0.20 0.18 0.17
3.74 3.67 2.66 2.07 2.41 3.00 3.44 4.52 5.55 5.53 4.91 3.83 1.76 0.78 0.56 0.49 0.55 0.61 0.56 0.57 0.59 0.84 0.99 1.50 1.68 0.93 0.74 0.82 0.33 0.13 0.12 0.09 0.24 0.40 0.45 0.43 0.44 0.35 0.23 0.18 0.16 0.14 0.12 0.08 0.09 0.17 0.19 0.12 0.04 0.02 0.03 0.02 0.02 0.03
3.12 2.14 1.74 2.18 3.32 4.61 6.11 5.61 5.20 4.87 3.68 1.93 0.74 0.39 0.28 0.38 0.42 0.40 0.40 0.49 0.66 0.91 0.92 1.34 1.25 1.20 0.92 0.52 0.20 0.09 0.10 0.13 0.16 0.22 0.36 0.41 0.31 0.24 0.16 0.11 0.06 0.03 0.03 0.03 0.05 0.07 0.05 0.03 0.02 0.03 0.05 0.05 0.05 0.03
1.99 1.62 1.87 2.58 3.27 4.62 5.50 5.34 4.20 3.50 1.70 0.72 0.39 0.24 0.16 0.19 0.25 0.30 0.28 0.33 0.43 0.56 0.92 1.17 1.41 0.98 0.42 0.21 0.13 0.14 0.16 0.14 0.18 0.22 0.30 0.23 0.14 0.09 0.05 0.02 0.01 0.00 0.00 0.00 0.01 0.01 0.00 0.01 0.00 0.01 0.01 0.01 0.01 0.01
2.84 2.66 2.55 2.85 2.99 4.53 4.95 4.24 2.97 1.65 0.82 0.38 0.30 0.22 0.17 0.26 0.27 0.22 0.18 0.18 0.27 0.78 1.50 1.38 0.76 0.45 0.47 0.48 0.33 0.28 0.29 0.24 0.19 0.18 0.17 0.12 0.06 0.02 0.01 0.00 0.00 0.00 0.00 0.00 0.00 0.00 0.00 0.00 0.00 0.00 0.00 0.00 0.00 0.02
5.36 4.79 4.70 4.90 5.75 5.80 4.50 2.62 1.77 1.13 0.56 0.34 0.27 0.25 0.30 0.23 0.31 0.37 0.46 0.47 1.04 1.59 1.21 0.63 0.43 0.46 0.35 0.34 0.35 0.29 0.25 0.18 0.13 0.08 0.06 0.03 0.01 0.00 0.00 0.00 0.00 0.00 0.00 0.00 0.00 0.00 0.00 0.00 0.00 0.00 0.01 0.01 0.02 0.04
5.47 5.44 6.72 6.66 6.82 6.15 4.48 2.48 1.29 0.81 0.62 0.57 0.38 0.37 0.51 0.44 0.41 0.56 0.81 1.19 1.41 0.83 0.51 0.31 0.25 0.23 0.15 0.13 0.11 0.10 0.08 0.03 0.02 0.02 0.01 0.01 0.00 0.00 0.00 0.00 0.00 0.00 0.00 0.00 0.00 0.00 0.00 0.00 0.00 0.01 0.03 0.02 0.03 0.03
4.40 4.64 5.07 5.39 5.39 4.63 3.42 1.65 1.17 0.94 0.66 0.56 0.46 0.61 0.63 0.52 0.53 0.68 1.10 1.05 0.69 0.46 0.38 0.27 0.22 0.16 0.13 0.07 0.07 0.04 0.05 0.06 0.03 0.01 0.00 0.00 0.00 0.00 0.00 0.00 0.00 0.00 0.00 0.00 0.00 0.00 0.00 0.00 0.01 0.02 0.03 0.04 0.04 0.04
4.68 5.39 5.30 4.82 3.60 2.95 2.15 1.63 1.04 0.70 0.76 0.66 0.62 0.61 0.56 0.47 0.63 0.81 0.69 0.30 0.34 0.40 0.39 0.43 0.31 0.19 0.15 0.13 0.12 0.12 0.10 0.09 0.08 0.07 0.04 0.02 0.01 0.00 0.00 0.00 0.01 0.01 0.00 0.00 0.00 0.01 0.01 0.02 0.03 0.05 0.07 0.10 0.11 0.09
7.50 7.33 4.53 3.87 2.51 1.39 0.83 0.61 0.52 0.38 0.34 0.28 0.39 0.45 0.45 0.52 0.60 0.58 0.30 0.23 0.32 0.41 0.46 0.42 0.33 0.27 0.19 0.17 0.15 0.13 0.15 0.18 0.13 0.12 0.15 0.15 0.08 0.04 0.03 0.02 0.01 0.01 0.01 0.02 0.04 0.05 0.05 0.06 0.09 0.12 0.13 0.14 0.18 0.21
5.26 3.66 2.70 1.31 0.75 0.31 0.28 0.25 0.20 0.16 0.15 0.26 0.35 0.36 0.42 0.50 0.57 0.42 0.18 0.23 0.36 0.47 0.49 0.40 0.29 0.22 0.18 0.17 0.15 0.15 0.11 0.15 0.17 0.20 0.24 0.27 0.24 0.20 0.12 0.08 0.05 0.04 0.03 0.09 0.19 0.23 0.17 0.13 0.14 0.16 0.17 0.16 0.21 0.32
2.96 1.92 0.95 0.33 0.11 0.05 0.06 0.07 0.08 0.10 0.24 0.33 0.31 0.30 0.43 0.70 0.46 0.22 0.20 0.29 0.35 0.45 0.50 0.46 0.29 0.22 0.19 0.20 0.22 0.24 0.22 0.22 0.22 0.18 0.24 0.33 0.32 0.27 0.27 0.32 0.32 0.22 0.28 0.37 0.36 0.34 0.35 0.31 0.27 0.25 0.29 0.28 0.29 0.38
1.14 0.37 0.31 0.25 0.10 0.05 0.08 0.12 0.14 0.17 0.21 0.21 0.18 0.30 0.43 0.34 0.19 0.19 0.25 0.34 0.42 0.45 0.48 0.49 0.39 0.31 0.29 0.27 0.28 0.31 0.32 0.32 0.35 0.37 0.42 0.46 0.45 0.40 0.35 0.47 0.61 0.65 0.67 0.63 0.67 0.73 0.64 0.58 0.51 0.45 0.45 0.46 0.39 0.39
0.46 0.27 0.14 0.17 0.20 0.22 0.19 0.15 0.15 0.13 0.09 0.13 0.16 0.18 0.20 0.15 0.16 0.20 0.26 0.34 0.41 0.44 0.44 0.42 0.42 0.38 0.36 0.35 0.39 0.46 0.45 0.39 0.33 0.37 0.28 0.25 0.32 0.44 0.50 0.54 0.68 0.76 0.73 0.77 0.69 0.69 0.76 0.81 0.86 0.85 0.73 0.60 0.49 0.49
0.31 0.20 0.16 0.15 0.14 0.16 0.13 0.09 0.09 0.11 0.09 0.09 0.06 0.07 0.08 0.13 0.21 0.26 0.29 0.33 0.39 0.44 0.48 0.47 0.45 0.44 0.43 0.42 0.43 0.46 0.48 0.47 0.45 0.46 0.62 0.46 0.33 0.44 0.60 0.69 0.72 0.74 0.80 0.82 0.77 0.77 0.77 0.81 0.79 0.72 0.67 0.62 0.57 0.52
0.20 0.17 0.16 0.18 0.20 0.21 0.21 0.23 0.23 0.18 0.16 0.15 0.13 0.11 0.11 0.15 0.21 0.26 0.28 0.32 0.38 0.44 0.48 0.50 0.49 0.49 0.48 0.50 0.49 0.48 0.51 0.53 0.57 0.56 0.56 0.74 0.77 0.75 0.74 0.77 0.83 0.92 0.91 0.82 0.73 0.66 0.61 0.59 0.56 0.53 0.53 0.52 0.50 0.47
0.31 0.25 0.14 0.19 0.28 0.33 0.34 0.32 0.29 0.26 0.27 0.22 0.22 0.21 0.20 0.16 0.17 0.22 0.28 0.32 0.35 0.38 0.43 0.43 0.37 0.39 0.42 0.43 0.48 0.56 0.58 0.59 0.65 0.71 0.79 0.89 0.87 0.73 0.73 0.80 0.87 0.92 0.89 0.81 0.70 0.64 0.62 0.65 0.67 0.64 0.62 0.57 0.50 0.45
0.49 0.40 0.32 0.29 0.35 0.39 0.37 0.34 0.45 0.44 0.35 0.29 0.25 0.22 0.18 0.14 0.16 0.21 0.26 0.27 0.28 0.32 0.36 0.39 0.42 0.45 0.48 0.50 0.54 0.61 0.65 0.68 0.68 0.80 1.03 1.06 1.03 1.01 1.01 0.94 0.81 0.76 0.72 0.69 0.67 0.72 0.74 0.73 0.67 0.63 0.61 0.56 0.49 0.46

GFSWCAN_prec_precacc_201.txt.gz
Total_Precipitation_Accumulation
1.29 1.34 1.50 1.30 1.04 0.74 0.72 0.73 1.15 1.61 1.43 1.29 1.30 0.98 0.93 0.66 0.58 0.75 0.46 0.54 0.90 0.68 0.18 0.05 0.05 0.16 0.45 0.41 0.37 0.39 0.49 0.37 0.51 0.59 0.41 0.17 0.05 0.01 0.00 0.00 0.00 0.04 0.08 0.10 0.15 0.20 0.02 0.00 0.00 0.01 0.01 0.00 0.00 0.01
1.25 1.27 1.22 1.17 1.23 1.34 0.95 0.92 1.20 1.43 1.21 1.02 0.86 0.75 0.74 0.64 0.61 0.91 0.67 0.42 0.69 0.81 0.40 0.08 0.06 0.07 0.27 0.39 0.48 0.46 0.51 0.37 0.51 0.61 0.50 0.31 0.16 0.04 0.01 0.01 0.00 0.00 0.01 0.00 0.00 0.00 0.00 0.00 0.00 0.00 0.00 0.00 0.00 0.00
1.79 1.52 1.31 1.12 0.86 1.00 1.48 1.63 1.47 1.34 1.03 0.85 0.69 0.61 0.67 0.65 0.65 1.03 0.73 0.55 0.83 0.85 0.42 0.14 0.08 0.03 0.10 0.22 0.39 0.52 0.43 0.33 0.46 0.41 0.67 0.43 0.27 0.11 0.09 0.04 0.02 0.00 0.00 0.00 0.00 0.00 0.00 0.00 0.00 0.00 0.00 0.00 0.00 0.00
2.20 1.74 1.45 1.43 1.34 0.96 1.12 1.80 1.93 1.63 1.24 0.87 0.67 0.63 0.54 0.59 0.73 1.01 0.65 0.50 0.86 1.29 1.29 0.33 0.04 0.01 0.04 0.19 0.30 0.37 0.53 0.39 0.42 0.55 0.72 0.80 0.42 0.08 0.05 0.03 0.03 0.02 0.02 0.01 0.00 0.00 0.00 0.00 0.00 0.00 0.00 0.00 0.00 0.00
2.74 2.37 1.74 1.39 1.49 1.62 1.29 1.33 1.32 1.25 1.13 0.73 0.62 0.68 0.68 0.76 0.95 0.93 0.65 0.59 0.62 1.15 1.43 0.54 0.14 0.04 0.03 0.17 0.34 0.41 0.55 0.80 0.78 0.93 0.93 0.63 0.34 0.20 0.15 0.12 0.08 0.00 0.01 0.02 0.01 0.00 0.00 0.01 0.00 0.00 0.01 0.01 0.00 0.00
3.10 3.16 2.94 2.13 1.55 1.50 1.67 1.36 1.27 1.10 0.98 0.64 0.63 0.80 0.89 0.91 1.45 1.60 2.48 1.49 0.74 0.94 2.19 1.70 0.58 0.17 0.10 0.23 0.43 0.57 0.58 0.69 1.14 1.39 1.10 0.60 0.24 0.40 0.86 0.33 0.01 0.00 0.00 0.00 0.01 0.01 0.02 0.02 0.01 0.00 0.00 0.00 0.00 0.00
2.61 2.95 3.62 3.68 2.63 2.05 2.11 1.53 1.32 1.18 1.04 0.81 0.85 0.87 0.86 1.11 1.46 1.87 2.35 1.32 0.94 1.27 2.72 2.49 1.55 0.57 0.25 0.35 0.65 0.80 0.81 0.88 1.11 1.51 1.09 0.65 0.38 0.80 1.27 0.50 0.04 0.00 0.00 0.00 0.02 0.04 0.03 0.01 0.01 0.00 0.00 0.00 0.00 0.00
2.16 2.39 2.83 3.82 3.99 3.34 2.66 1.90 1.46 1.36 1.25 1.09 1.11 1.15 1.27 1.77 2.05 1.91 1.25 0.93 1.12 1.79 2.86 3.02 1.77 0.77 0.53 0.63 0.93 0.95 0.95 1.03 1.18 1.34 0.92 0.46 0.51 0.90 0.91 0.13 0.02 0.01 0.01 0.01 0.01 0.01 0.02 0.01 0.01 0.02 0.02 0.01 0.00 0.00
1.97 1.92 2.07 2.63 2.94 3.44 3.56 3.22 2.18 1.71 1.71 1.79 2.11 2.43 2.91 2.84 2.26 1.80 1.47 1.59 1.62 2.89 4.74 2.94 1.04 0.71 0.70 0.54 0.71 0.84 1.03 1.33 1.34 0.99 0.79 0.65 0.62 0.63 0.23 0.03 0.00 0.00 0.01 0.01 0.01 0.00 0.01 0.01 0.01 0.00 0.01 0.01 0.02 0.04
1.86 1.69 1.62 1.97 1.72 2.09 2.92 3.15 3.25 2.70 2.59 3.19 3.44 3.68 3.75 2.99 2.40 2.50 3.38 4.37 5.00 4.47 3.27 1.73 0.50 0.46 0.65 0.57 0.91 1.11 1.23 1.28 1.21 0.69 0.58 0.90 0.48 0.16 0.07 0.02 0.00 0.01 0.01 0.02 0.01 0.02 0.01 0.02 0.02 0.01 0.02 0.01 0.02 0.03
1.54 1.56 1.41 1.81 1.39 1.38 1.94 3.15 3.26 3.29 3.72 3.89 3.56 3.02 3.00 2.67 3.33 4.22 4.80 4.45 4.10 3.41 2.08 0.81 0.49 0.45 0.53 0.69 1.02 1.23 1.48 1.27 1.11 0.47 0.56 0.69 0.31 0.12 0.09 0.06 0.02 0.01 0.02 0.02 0.01 0.03 0.05 0.05 0.05 0.05 0.06 0.07 0.05 0.04
1.44 1.38 1.36 1.72 1.32 1.30 1.44 2.28 3.13 3.75 3.93 3.35 2.66 2.71 3.37 3.73 4.38 4.22 3.33 2.16 1.87 1.30 0.98 0.69 0.41 0.42 0.70 0.97 1.44 1.81 1.47 1.28 0.81 0.48 0.78 0.30 0.06 0.02 0.06 0.09 0.10 0.08 0.05 0.04 0.03 0.03 0.07 0.16 0.20 0.19 0.16 0.14 0.10 0.08
1.65 1.42 1.46 1.73 1.36 1.41 1.58 1.81 2.01 3.03 3.31 3.36 3.54 3.92 3.68 3.32 3.12 2.32 1.39 0.92 0.74 0.55 0.48 0.39 0.44 0.62 0.85 1.18 1.91 1.77 1.66 1.09 0.56 0.65 0.39 0.07 0.03 0.10 0.16 0.09 0.04 0.03 0.05 0.14 0.24 0.30 0.25 0.20 0.15 0.18 0.27 0.25 0.20 0.15
1.80 1.56 1.73 1.94 1.59 1.65 1.85 1.95 2.26 3.01 3.51 4.26 4.07 3.75 2.49 1.84 0.91 0.44 0.32 0.30 0.19 0.23 0.26 0.32 0.64 0.79 0.90 1.23 1.44 1.52 0.94 0.71 0.77 0.45 0.15 0.10 0.11 0.18 0.18 0.15 0.11 0.04 0.03 0.08 0.11 0.17 0.23 0.25 0.26 0.25 0.24 0.26 0.25 0.22
1.98 2.00 2.45 2.45 2.12 2.08 1.98 2.33 3.04 3.29 3.74 3.89 3.40 2.24 1.28 0.65 0.39 0.35 0.27 0.27 0.35 0.38 0.50 0.63 0.88 0.88 1.13 1.48 1.16 0.98 1.02 0.57 0.13 0.03 0.06 0.11 0.22 0.32 0.36 0.35 0.25 0.13 0.09 0.11 0.13 0.23 0.31 0.17 0.14 0.23 0.31 0.30 0.18 0.13
2.52 3.19 3.31 2.66 2.43 2.49 2.53 3.37 4.43 4.35 4.36 3.61 2.89 1.64 0.75 0.44 0.40 0.42 0.40 0.45 0.53 0.60 0.74 1.19 1.35 1.34 1.39 1.15 0.99 0.62 0.56 0.25 0.17 0.26 0.34 0.37 0.55 0.58 0.55 0.49 0.42 0.34 0.27 0.30 0.43 0.60 0.47 0.23 0.12 0.07 0.10 0.21 0.19 0.18
3.75 3.68 2.67 2.10 2.45 3.02 3.44 4.52 5.55 5.53 4.92 3.85 1.78 0.80 0.61 0.51 0.56 0.62 0.57 0.58 0.63 0.92 1.04 1.57 1.77 1.01 0.84 0.91 0.38 0.16 0.16 0.13 0.30 0.49 0.55 0.55 0.55 0.45 0.36 0.39 0.44 0.46 0.42 0.29 0.27 0.31 0.28 0.17 0.07 0.05 0.05 0.04 0.03 0.03
3.13 2.15 1.78 2.22 3.33 4.61 6.11 5.61 5.20 4.89 3.71 1.95 0.76 0.42 0.30 0.40 0.45 0.41 0.40 0.50 0.74 0.99 1.01 1.42 1.29 1.25 0.97 0.57 0.24 0.14 0.15 0.19 0.25 0.31 0.47 0.55 0.48 0.44 0.38 0.39 0.35 0.25 0.18 0.11 0.11 0.11 0.08 0.05 0.04 0.05 0.06 0.05 0.05 0.03
2.01 1.65 1.88 2.58 3.27 4.62 5.50 5.34 4.22 3.54 1.72 0.75 0.42 0.26 0.16 0.21 0.26 0.31 0.32 0.38 0.53 0.63 0.97 1.20 1.44 1.02 0.47 0.27 0.22 0.19 0.21 0.21 0.27 0.32 0.46 0.46 0.34 0.30 0.25 0.20 0.17 0.11 0.07 0.05 0.04 0.03 0.02 0.02 0.01 0.01 0.01 0.01 0.01 0.01
2.85 2.66 2.55 2.85 2.99 4.53 4.95 4.24 2.99 1.68 0.84 0.40 0.33 0.24 0.19 0.30 0.31 0.24 0.21 0.21 0.30 0.81 1.52 1.40 0.80 0.51 0.55 0.59 0.45 0.34 0.37 0.34 0.25 0.26 0.33 0.29 0.19 0.10 0.05 0.03 0.02 0.01 0.01 0.01 0.01 0.00 0.00 0.00 0.00 0.00 0.00 0.00 0.00 0.02
5.36 4.79 4.70 4.90 5.75 5.80 4.50 2.62 1.78 1.15 0.58 0.38 0.31 0.27 0.32 0.25 0.33 0.39 0.47 0.47 1.05 1.60 1.26 0.72 0.52 0.57 0.49 0.46 0.49 0.42 0.39 0.25 0.17 0.11 0.10 0.06 0.03 0.01 0.00 0.00 0.00 0.00 0.00 0.00 0.00 0.00 0.00 0.00 0.00 0.00 0.01 0.01 0.02 0.04
5.47 5.44 6.72 6.66 6.82 6.15 4.48 2.48 1.29 0.81 0.63 0.60 0.41 0.39 0.54 0.47 0.44 0.57 0.81 1.20 1.45 0.89 0.60 0.48 0.40 0.38 0.24 0.23 0.18 0.15 0.13 0.04 0.02 0.02 0.02 0.02 0.02 0.01 0.00 0.00 0.00 0.00 0.00 0.00 0.00 0.00 0.00 0.00 0.00 0.01 0.03 0.02 0.03 0.03
4.40 4.64 5.07 5.39 5.39 4.63 3.42 1.65 1.17 0.94 0.66 0.58 0.49 0.64 0.67 0.55 0.54 0.68 1.10 1.07 0.75 0.56 0.46 0.35 0.29 0.17 0.13 0.08 0.07 0.04 0.05 0.06 0.03 0.01 0.00 0.00 0.00 0.00 0.00 0.00 0.00 0.00 0.00 0.00 0.00 0.00 0.00 0.00 0.01 0.02 0.03 0.04 0.04 0.04
4.68 5.39 5.30 4.82 3.60 2.95 2.15 1.63 1.04 0.70 0.76 0.67 0.65 0.64 0.59 0.49 0.63 0.81 0.70 0.32 0.42 0.49 0.45 0.48 0.33 0.20 0.15 0.13 0.12 0.12 0.10 0.09 0.08 0.07 0.04 0.02 0.01 0.00 0.00 0.00 0.01 0.01 0.00 0.00 0.00 0.01 0.01 0.02 0.03 0.05 0.07 0.10 0.11 0.09
7.50 7.33 4.53 3.87 2.51 1.39 0.83 0.61 0.52 0.38 0.34 0.29 0.41 0.48 0.47 0.53 0.61 0.58 0.31 0.27 0.36 0.45 0.51 0.47 0.36 0.28 0.19 0.17 0.15 0.13 0.15 0.18 0.13 0.12 0.15 0.15 0.08 0.04 0.03 0.02 0.01 0.01 0.01 0.02 0.04 0.05 0.05 0.06 0.09 0.12 0.13 0.14 0.18 0.21
5.26 3.66 2.70 1.31 0.75 0.31 0.28 0.25 0.20 0.16 0.15 0.26 0.36 0.37 0.43 0.50 0.57 0.43 0.20 0.26 0.39 0.51 0.51 0.41 0.30 0.22 0.18 0.17 0.15 0.15 0.11 0.15 0.17 0.20 0.24 0.27 0.24 0.20 0.12 0.08 0.05 0.04 0.03 0.09 0.19 0.23 0.17 0.13 0.14 0.16 0.17 0.16 0.22 0.32
2.96 1.92 0.95 0.33 0.11 0.05 0.06 0.07 0.08 0.10 0.24 0.33 0.31 0.31 0.43 0.70 0.46 0.23 0.22 0.31 0.38 0.47 0.50 0.46 0.29 0.22 0.19 0.20 0.22 0.24 0.22 0.22 0.22 0.18 0.24 0.33 0.32 0.27 0.27 0.32 0.33 0.23 0.29 0.37 0.36 0.34 0.35 0.31 0.27 0.25 0.29 0.28 0.29 0.38
1.14 0.37 0.31 0.25 0.10 0.05 0.09 0.12 0.14 0.18 0.22 0.21 0.18 0.30 0.43 0.34 0.20 0.21 0.27 0.36 0.44 0.46 0.48 0.49 0.39 0.31 0.29 0.27 0.28 0.31 0.32 0.32 0.35 0.37 0.42 0.46 0.45 0.40 0.35 0.47 0.61 0.65 0.67 0.63 0.67 0.73 0.65 0.58 0.51 0.46 0.45 0.47 0.39 0.39
0.46 0.27 0.14 0.17 0.20 0.22 0.20 0.15 0.15 0.14 0.10 0.14 0.16 0.18 0.20 0.15 0.17 0.21 0.27 0.35 0.42 0.44 0.44 0.42 0.42 0.38 0.36 0.35 0.39 0.46 0.45 0.39 0.33 0.37 0.28 0.25 0.32 0.44 0.50 0.54 0.68 0.76 0.73 0.77 0.69 0.69 0.77 0.83 0.87 0.85 0.74 0.60 0.49 0.50
0.31 0.20 0.16 0.15 0.14 0.16 0.14 0.10 0.10 0.11 0.10 0.09 0.06 0.07 0.08 0.14 0.22 0.27 0.30 0.34 0.40 0.45 0.48 0.47 0.45 0.44 0.43 0.42 0.43 0.46 0.48 0.47 0.45 0.46 0.62 0.46 0.34 0.44 0.60 0.69 0.72 0.74 0.80 0.83 0.77 0.77 0.77 0.81 0.79 0.72 0.67 0.62 0.57 0.52
0.20 0.17 0.16 0.18 0.21 0.21 0.22 0.24 0.24 0.18 0.16 0.15 0.13 0.11 0.11 0.15 0.21 0.26 0.28 0.32 0.39 0.44 0.48 0.50 0.49 0.49 0.48 0.50 0.49 0.48 0.51 0.53 0.57 0.56 0.57 0.74 0.78 0.75 0.74 0.77 0.83 0.92 0.92 0.82 0.73 0.66 0.61 0.59 0.56 0.53 0.53 0.52 0.50 0.47
0.31 0.25 0.14 0.19 0.28 0.33 0.34 0.33 0.30 0.26 0.27 0.22 0.23 0.21 0.20 0.16 0.18 0.22 0.28 0.32 0.35 0.38 0.43 0.43 0.37 0.39 0.42 0.43 0.48 0.56 0.58 0.59 0.65 0.71 0.79 0.89 0.88 0.73 0.73 0.80 0.87 0.93 0.90 0.82 0.70 0.64 0.62 0.65 0.67 0.64 0.62 0.57 0.50 0.45
0.49 0.40 0.32 0.29 0.35 0.40 0.37 0.34 0.45 0.44 0.35 0.29 0.26 0.22 0.19 0.15 0.16 0.21 0.26 0.27 0.28 0.32 0.36 0.39 0.42 0.45 0.48 0.50 0.54 0.61 0.65 0.68 0.68 0.80 1.04 1.07 1.04 1.02 1.02 0.95 0.81 0.76 0.73 0.70 0.67 0.72 0.74 0.73 0.67 0.63 0.61 0.56 0.49 0.46

GFSWCAN_prec_precacc_207.txt.gz
Total_Precipitation_Accumulation
1.29 1.34 1.50 1.30 1.04 0.74 0.72 0.73 1.16 1.62 1.43 1.30 1.31 0.99 0.94 0.67 0.59 0.77 0.47 0.54 0.92 0.71 0.19 0.05 0.05 0.16 0.46 0.44 0.44 0.43 0.54 0.39 0.54 0.64 0.51 0.26 0.18 0.12 0.08 0.04 0.03 0.08 0.10 0.11 0.17 0.25 0.05 0.00 0.00 0.01 0.01 0.00 0.00 0.01
1.25 1.27 1.22 1.17 1.23 1.35 0.95 0.92 1.20 1.43 1.21 1.02 0.86 0.76 0.75 0.64 0.62 0.95 0.69 0.42 0.70 0.84 0.41 0.08 0.06 0.08 0.28 0.40 0.51 0.51 0.59 0.40 0.56 0.65 0.54 0.38 0.27 0.15 0.10 0.11 0.01 0.09 0.10 0.13 0.05 0.04 0.01 0.00 0.00 0.00 0.00 0.00 0.00 0.00
1.79 1.53 1.32 1.12 0.86 1.01 1.48 1.63 1.47 1.35 1.03 0.85 0.69 0.62 0.68 0.66 0.66 1.09 0.77 0.55 0.84 0.88 0.48 0.14 0.08 0.03 0.10 0.22 0.40 0.56 0.45 0.33 0.47 0.44 0.74 0.53 0.35 0.15 0.15 0.12 0.07 0.05 0.09 0.16 0.12 0.02 0.01 0.01 0.00 0.00 0.00 0.00 0.00 0.00
2.20 1.74 1.45 1.43 1.35 0.96 1.13 1.81 1.94 1.64 1.25 0.88 0.68 0.65 0.56 0.61 0.76 1.08 0.70 0.51 0.89 1.38 1.45 0.36 0.04 0.01 0.04 0.19 0.30 0.37 0.53 0.39 0.43 0.58 0.86 1.00 0.52 0.13 0.07 0.06 0.05 0.04 0.04 0.05 0.05 0.01 0.01 0.01 0.00 0.00 0.00 0.00 0.00 0.00
2.74 2.38 1.75 1.40 1.50 1.63 1.30 1.33 1.33 1.27 1.15 0.75 0.64 0.70 0.70 0.78 0.99 0.97 0.67 0.59 0.63 1.20 1.46 0.54 0.15 0.04 0.03 0.17 0.34 0.41 0.55 0.81 0.79 0.99 1.10 0.74 0.35 0.23 0.16 0.14 0.09 0.00 0.01 0.04 0.04 0.01 0.03 0.04 0.00 0.01 0.01 0.01 0.00 0.00
3.10 3.16 2.94 2.13 1.56 1.51 1.68 1.38 1.30 1.13 1.00 0.65 0.64 0.81 0.91 0.93 1.48 1.65 2.49 1.49 0.74 0.95 2.38 1.82 0.60 0.17 0.10 0.23 0.43 0.57 0.58 0.69 1.16 1.44 1.18 0.65 0.25 0.44 0.93 0.37 0.02 0.00 0.00 0.01 0.01 0.01 0.03 0.03 0.01 0.01 0.01 0.01 0.01 0.00
2.62 2.96 3.63 3.70 2.64 2.06 2.13 1.56 1.35 1.19 1.05 0.82 0.86 0.88 0.87 1.11 1.48 1.90 2.36 1.32 0.94 1.35 2.93 2.68 1.57 0.57 0.25 0.35 0.65 0.80 0.81 0.88 1.11 1.54 1.13 0.67 0.39 0.87 1.38 0.59 0.04 0.00 0.00 0.00 0.02 0.04 0.04 0.01 0.02 0.01 0.01 0.01 0.01 0.00
2.18 2.41 2.86 3.84 4.01 3.36 2.69 1.93 1.48 1.36 1.26 1.09 1.12 1.15 1.27 1.77 2.05 1.92 1.26 0.93 1.17 2.00 3.10 3.27 1.81 0.77 0.53 0.63 0.93 0.95 0.95 1.06 1.23 1.37 0.93 0.47 0.53 0.95 1.06 0.15 0.02 0.01 0.01 0.01 0.01 0.02 0.02 0.01 0.02 0.04 0.05 0.03 0.02 0.01
1.99 1.93 2.08 2.65 2.96 3.46 3.59 3.24 2.19 1.72 1.71 1.80 2.12 2.43 2.91 2.84 2.26 1.80 1.47 1.59 1.64 2.99 4.83 2.97 1.06 0.72 0.70 0.55 0.72 0.87 1.05 1.49 1.41 1.01 0.79 0.68 0.69 0.74 0.27 0.03 0.00 0.00 0.01 0.01 0.01 0.00 0.01 0.03 0.03 0.01 0.02 0.03 0.03 0.06
1.88 1.71 1.64 1.99 1.75 2.11 2.94 3.16 3.26 2.70 2.62 3.22 3.44 3.68 3.75 2.99 2.40 2.50 3.38 4.37 5.01 4.51 3.38 1.80 0.55 0.54 0.68 0.65 1.05 1.28 1.39 1.38 1.27 0.71 0.59 0.97 0.53 0.17 0.07 0.02 0.00 0.01 0.01 0.02 0.01 0.02 0.02 0.03 0.03 0.02 0.02 0.03 0.05 0.05
1.56 1.57 1.43 1.84 1.41 1.40 1.95 3.16 3.29 3.34 3.75 3.89 3.56 3.02 3.00 2.67 3.33 4.23 4.81 4.46 4.15 3.52 2.21 1.08 0.68 0.59 0.56 0.79 1.09 1.37 1.56 1.32 1.21 0.49 0.58 0.72 0.32 0.12 0.09 0.06 0.02 0.01 0.02 0.02 0.01 0.03 0.05 0.06 0.05 0.05 0.07 0.08 0.07 0.07
1.45 1.41 1.39 1.73 1.33 1.32 1.47 2.32 3.16 3.80 3.98 3.41 2.74 2.74 3.37 3.74 4.39 4.27 3.37 2.24 2.05 1.62 1.14 0.83 0.44 0.44 0.70 1.00 1.60 2.00 1.65 1.35 0.85 0.49 0.84 0.31 0.06 0.02 0.06 0.09 0.10 0.08 0.05 0.04 0.03 0.03 0.07 0.16 0.20 0.20 0.16 0.14 0.11 0.10
1.67 1.43 1.47 1.74 1.37 1.43 1.60 1.82 2.03 3.15 3.42 3.40 3.57 3.94 3.68 3.32 3.13 2.34 1.42 0.97 0.79 0.57 0.49 0.41 0.45 0.62 0.85 1.22 2.05 1.90 1.79 1.16 0.59 0.68 0.41 0.08 0.03 0.10 0.16 0.09 0.04 0.03 0.05 0.14 0.24 0.30 0.25 0.21 0.16 0.18 0.28 0.26 0.24 0.21
1.81 1.56 1.74 1.94 1.59 1.66 1.85 1.96 2.37 3.17 3.59 4.37 4.10 3.75 2.49 1.84 0.92 0.45 0.35 0.33 0.20 0.24 0.28 0.33 0.64 0.79 0.90 1.25 1.49 1.61 1.02 0.78 0.83 0.50 0.18 0.10 0.11 0.19 0.18 0.15 0.11 0.04 0.04 0.11 0.13 0.18 0.23 0.25 0.26 0.25 0.27 0.31 0.32 0.40
1.99 2.01 2.46 2.46 2.12 2.09 2.00 2.42 3.20 3.37 3.85 3.92 3.40 2.25 1.28 0.65 0.39 0.35 0.27 0.27 0.35 0.38 0.51 0.66 0.89 0.90 1.15 1.52 1.28 1.18 1.16 0.66 0.21 0.08 0.09 0.15 0.27 0.36 0.39 0.38 0.31 0.17 0.12 0.16 0.17 0.32 0.37 0.17 0.16 0.33 0.50 0.54 0.42 0.39
2.53 3.19 3.31 2.66 2.44 2.52 2.64 3.45 4.46 4.36 4.36 3.61 2.89 1.64 0.75 0.44 0.41 0.42 0.41 0.45 0.53 0.60 0.76 1.23 1.41 1.39 1.51 1.37 1.20 0.77 0.64 0.32 0.23 0.34 0.44 0.47 0.61 0.64 0.64 0.64 0.66 0.63 0.55 0.42 0.58 0.74 0.60 0.32 0.25 0.31 0.44 0.57 0.47 0.35
3.76 3.68 2.67 2.12 2.50 3.07 3.46 4.52 5.55 5.53 4.92 3.87 1.79 0.82 0.71 0.61 0.61 0.66 0.58 0.58 0.65 0.99 1.08 1.63 1.88 1.12 0.93 1.00 0.45 0.22 0.25 0.22 0.40 0.60 0.66 0.66 0.67 0.60 0.51 0.57 0.69 0.84 0.94 0.66 0.65 0.63 0.63 0.50 0.35 0.24 0.23 0.19 0.12 0.08
3.13 2.15 1.79 2.26 3.35 4.61 6.11 5.61 5.20 4.89 3.72 1.97 0.82 0.48 0.37 0.46 0.50 0.43 0.41 0.52 0.83 1.07 1.14 1.55 1.38 1.29 1.01 0.61 0.29 0.22 0.25 0.29 0.36 0.46 0.64 0.73 0.68 0.71 0.63 0.67 0.70 0.66 0.62 0.50 0.41 0.36 0.27 0.18 0.16 0.16 0.13 0.10 0.08 0.06
2.04 1.70 1.90 2.58 3.27 4.62 5.50 5.34 4.22 3.55 1.73 0.78 0.47 0.33 0.21 0.27 0.30 0.34 0.35 0.45 0.69 0.75 1.06 1.26 1.48 1.06 0.51 0.33 0.30 0.29 0.33 0.33 0.43 0.51 0.65 0.67 0.58 0.52 0.44 0.37 0.33 0.29 0.29 0.26 0.19 0.17 0.14 0.10 0.08 0.06 0.05 0.03 0.03 0.02
2.88 2.68 2.55 2.85 2.99 4.53 4.95 4.24 3.00 1.70 0.85 0.43 0.37 0.29 0.22 0.37 0.34 0.27 0.26 0.26 0.35 0.85 1.55 1.42 0.85 0.58 0.64 0.67 0.60 0.50 0.53 0.51 0.39 0.33 0.40 0.36 0.24 0.12 0.06 0.04 0.03 0.02 0.02 0.03 0.03 0.03 0.02 0.02 0.01 0.01 0.01 0.00 0.01 0.03
5.36 4.79 4.70 4.90 5.75 5.80 4.50 2.62 1.78 1.16 0.59 0.42 0.36 0.30 0.36 0.27 0.36 0.41 0.49 0.47 1.05 1.63 1.30 0.78 0.62 0.69 0.64 0.65 0.71 0.62 0.56 0.31 0.18 0.12 0.11 0.06 0.03 0.01 0.00 0.00 0.00 0.00 0.00 0.00 0.00 0.00 0.00 0.00 0.00 0.00 0.01 0.01 0.02 0.04
5.47 5.44 6.72 6.66 6.82 6.15 4.48 2.48 1.29 0.81 0.65 0.65 0.46 0.45 0.60 0.52 0.45 0.58 0.82 1.21 1.49 0.96 0.68 0.59 0.58 0.60 0.46 0.43 0.32 0.20 0.17 0.05 0.03 0.02 0.02 0.02 0.02 0.01 0.00 0.00 0.00 0.00 0.00 0.00 0.00 0.00 0.00 0.00 0.00 0.01 0.03 0.02 0.03 0.03
4.40 4.64 5.07 5.39 5.39 4.63 3.42 1.65 1.17 0.94 0.66 0.61 0.54 0.68 0.72 0.60 0.55 0.68 1.10 1.09 0.80 0.66 0.58 0.47 0.42 0.28 0.20 0.13 0.09 0.04 0.05 0.06 0.03 0.01 0.00 0.00 0.00 0.00 0.00 0.00 0.00 0.00 0.00 0.00 0.00 0.00 0.00 0.00 0.01 0.02 0.03 0.04 0.04 0.04
4.68 5.39 5.30 4.82 3.60 2.95 2.15 1.63 1.04 0.70 0.76 0.68 0.70 0.68 0.64 0.54 0.64 0.82 0.70 0.34 0.47 0.58 0.55 0.59 0.45 0.25 0.16 0.13 0.13 0.12 0.10 0.09 0.08 0.07 0.04 0.02 0.01 0.00 0.00 0.00 0.01 0.01 0.00 0.00 0.00 0.01 0.01 0.02 0.03 0.05 0.07 0.10 0.11 0.09
7.50 7.33 4.53 3.87 2.51 1.39 0.83 0.61 0.52 0.38 0.34 0.29 0.43 0.51 0.50 0.57 0.63 0.60 0.32 0.29 0.40 0.50 0.57 0.54 0.43 0.33 0.22 0.18 0.15 0.13 0.15 0.18 0.13 0.13 0.15 0.15 0.08 0.04 0.03 0.02 0.01 0.02 0.01 0.02 0.04 0.05 0.05 0.06 0.09 0.12 0.13 0.15 0.18 0.21
5.26 3.66 2.71 1.31 0.75 0.31 0.28 0.25 0.20 0.16 0.15 0.26 0.36 0.39 0.47 0.53 0.59 0.44 0.21 0.28 0.42 0.54 0.54 0.43 0.31 0.23 0.18 0.17 0.15 0.15 0.12 0.15 0.17 0.20 0.24 0.27 0.24 0.20 0.12 0.08 0.05 0.04 0.04 0.10 0.20 0.23 0.18 0.13 0.14 0.16 0.17 0.16 0.22 0.32
2.96 1.92 0.96 0.34 0.11 0.05 0.07 0.08 0.08 0.10 0.24 0.33 0.31 0.31 0.45 0.72 0.47 0.24 0.23 0.32 0.40 0.49 0.51 0.46 0.30 0.22 0.20 0.20 0.22 0.24 0.22 0.22 0.22 0.18 0.24 0.33 0.32 0.27 0.28 0.33 0.34 0.24 0.30 0.38 0.36 0.35 0.36 0.31 0.28 0.26 0.30 0.29 0.29 0.39
1.14 0.37 0.31 0.25 0.10 0.06 0.09 0.12 0.14 0.18 0.22 0.22 0.18 0.30 0.44 0.35 0.20 0.22 0.29 0.38 0.46 0.47 0.49 0.49 0.39 0.31 0.29 0.27 0.28 0.31 0.32 0.32 0.35 0.37 0.42 0.46 0.45 0.40 0.36 0.48 0.62 0.67 0.68 0.63 0.68 0.74 0.66 0.59 0.52 0.46 0.45 0.47 0.40 0.40
0.46 0.28 0.14 0.17 0.20 0.22 0.20 0.16 0.16 0.14 0.10 0.14 0.16 0.18 0.20 0.15 0.17 0.23 0.30 0.37 0.43 0.45 0.44 0.42 0.42 0.38 0.36 0.35 0.39 0.46 0.45 0.39 0.33 0.37 0.28 0.25 0.32 0.44 0.50 0.54 0.68 0.77 0.74 0.78 0.70 0.70 0.79 0.85 0.88 0.86 0.74 0.60 0.49 0.50
0.31 0.20 0.16 0.15 0.14 0.16 0.15 0.11 0.10 0.12 0.10 0.09 0.06 0.07 0.08 0.14 0.22 0.29 0.31 0.35 0.41 0.45 0.48 0.47 0.45 0.44 0.43 0.42 0.43 0.46 0.48 0.47 0.46 0.46 0.62 0.47 0.34 0.44 0.60 0.69 0.72 0.74 0.81 0.84 0.77 0.77 0.78 0.81 0.79 0.72 0.67 0.62 0.57 0.52
0.21 0.17 0.16 0.18 0.21 0.21 0.23 0.25 0.24 0.18 0.16 0.15 0.13 0.11 0.11 0.15 0.22 0.27 0.29 0.33 0.39 0.45 0.48 0.50 0.49 0.49 0.48 0.50 0.49 0.48 0.51 0.53 0.57 0.56 0.58 0.75 0.78 0.76 0.74 0.77 0.84 0.94 0.93 0.83 0.74 0.67 0.61 0.60 0.56 0.53 0.53 0.52 0.50 0.47
0.31 0.26 0.14 0.19 0.28 0.34 0.35 0.35 0.31 0.27 0.28 0.22 0.23 0.21 0.20 0.16 0.18 0.22 0.29 0.32 0.35 0.38 0.43 0.43 0.37 0.39 0.42 0.43 0.48 0.56 0.58 0.59 0.65 0.71 0.80 0.90 0.88 0.74 0.73 0.80 0.88 0.94 0.91 0.82 0.70 0.64 0.62 0.65 0.67 0.64 0.62 0.57 0.50 0.45
0.49 0.40 0.32 0.30 0.35 0.40 0.38 0.35 0.46 0.45 0.36 0.30 0.26 0.23 0.19 0.15 0.16 0.21 0.26 0.27 0.28 0.32 0.36 0.39 0.42 0.45 0.48 0.50 0.54 0.61 0.65 0.68 0.68 0.80 1.05 1.09 1.05 1.03 1.04 0.96 0.82 0.78 0.74 0.70 0.68 0.72 0.74 0.73 0.67 0.63 0.61 0.56 0.49 0.46

GFSWCAN_prec_precacc_210.txt.gz
Total_Precipitation_Accumulation
1.29 1.34 1.51 1.30 1.04 0.74 0.72 0.73 1.16 1.62 1.43 1.30 1.31 0.99 0.94 0.67 0.59 0.78 0.47 0.54 0.93 0.76 0.21 0.05 0.05 0.17 0.46 0.44 0.45 0.44 0.56 0.40 0.54 0.65 0.52 0.27 0.20 0.13 0.10 0.05 0.04 0.10 0.12 0.12 0.18 0.27 0.06 0.00 0.01 0.04 0.03 0.00 0.00 0.01
1.26 1.27 1.22 1.17 1.24 1.35 0.96 0.92 1.20 1.43 1.21 1.02 0.86 0.76 0.75 0.65 0.62 0.98 0.70 0.42 0.71 0.86 0.42 0.08 0.06 0.08 0.28 0.40 0.51 0.51 0.60 0.40 0.56 0.65 0.54 0.38 0.28 0.16 0.10 0.12 0.01 0.09 0.10 0.14 0.08 0.06 0.02 0.02 0.09 0.05 0.03 0.02 0.00 0.00
1.79 1.53 1.32 1.13 0.87 1.01 1.48 1.64 1.48 1.35 1.03 0.86 0.70 0.63 0.69 0.68 0.69 1.13 0.79 0.55 0.85 0.90 0.49 0.14 0.08 0.03 0.10 0.22 0.40 0.58 0.45 0.34 0.47 0.44 0.76 0.55 0.38 0.16 0.16 0.13 0.07 0.05 0.09 0.17 0.13 0.02 0.01 0.01 0.01 0.03 0.06 0.04 0.01 0.00
2.21 1.74 1.45 1.44 1.35 0.96 1.13 1.81 1.94 1.64 1.25 0.90 0.70 0.67 0.58 0.62 0.78 1.10 0.71 0.51 0.90 1.41 1.48 0.36 0.04 0.01 0.04 0.19 0.30 0.37 0.53 0.39 0.43 0.59 0.90 1.08 0.57 0.16 0.08 0.07 0.06 0.05 0.04 0.06 0.06 0.01 0.01 0.01 0.01 0.01 0.01 0.01 0.01 0.00
2.74 2.38 1.75 1.40 1.50 1.63 1.30 1.34 1.33 1.28 1.17 0.78 0.66 0.70 0.70 0.78 1.00 0.99 0.67 0.59 0.63 1.22 1.47 0.55 0.15 0.04 0.03 0.17 0.34 0.41 0.55 0.81 0.79 0.99 1.15 0.79 0.36 0.25 0.18 0.16 0.11 0.00 0.01 0.04 0.05 0.01 0.03 0.04 0.01 0.01 0.02 0.01 0.00 0.00
3.10 3.16 2.94 2.14 1.56 1.51 1.70 1.40 1.31 1.14 1.02 0.66 0.65 0.81 0.91 0.94 1.50 1.66 2.50 1.49 0.74 0.96 2.43 1.83 0.60 0.17 0.10 0.23 0.43 0.57 0.58 0.69 1.16 1.47 1.23 0.66 0.25 0.46 0.98 0.39 0.02 0.00 0.00 0.01 0.01 0.01 0.03 0.03 0.01 0.01 0.01 0.01 0.01 0.00
2.63 2.96 3.63 3.70 2.66 2.09 2.15 1.57 1.36 1.21 1.07 0.83 0.86 0.89 0.87 1.12 1.49 1.91 2.37 1.32 0.95 1.38 3.03 2.81 1.60 0.57 0.25 0.35 0.65 0.80 0.81 0.88 1.12 1.62 1.18 0.69 0.40 0.90 1.48 0.64 0.04 0.00 0.00 0.00 0.02 0.04 0.04 0.01 0.02 0.01 0.02 0.01 0.01 0.01
2.18 2.42 2.86 3.85 4.02 3.38 2.69 1.93 1.49 1.38 1.28 1.10 1.12 1.15 1.28 1.77 2.06 1.92 1.26 0.93 1.19 2.08 3.20 3.35 1.82 0.77 0.53 0.63 0.93 0.95 0.95 1.06 1.26 1.39 0.94 0.48 0.55 1.02 1.14 0.16 0.02 0.01 0.01 0.01 0.01 0.02 0.02 0.01 0.02 0.04 0.05 0.03 0.02 0.01
2.00 1.94 2.09 2.66 2.97 3.47 3.59 3.25 2.21 1.73 1.72 1.81 2.13 2.44 2.91 2.84 2.26 1.80 1.47 1.59 1.65 3.03 4.88 2.99 1.07 0.72 0.70 0.55 0.72 0.87 1.06 1.50 1.41 1.04 0.81 0.70 0.72 0.78 0.28 0.05 0.01 0.00 0.02 0.01 0.01 0.00 0.01 0.03 0.03 0.01 0.02 0.03 0.03 0.06
1.88 1.72 1.65 2.00 1.75 2.12 2.95 3.17 3.27 2.72 2.64 3.24 3.45 3.68 3.75 2.99 2.40 2.50 3.38 4.37 5.01 4.53 3.46 1.86 0.62 0.58 0.69 0.65 1.06 1.28 1.41 1.40 1.28 0.72 0.59 0.99 0.54 0.17 0.08 0.03 0.01 0.01 0.02 0.02 0.02 0.02 0.02 0.03 0.03 0.02 0.02 0.03 0.06 0.06
1.57 1.58 1.43 1.84 1.42 1.41 1.96 3.18 3.31 3.36 3.76 3.89 3.56 3.02 3.00 2.67 3.33 4.23 4.81 4.46 4.15 3.53 2.27 1.21 0.73 0.61 0.56 0.79 1.10 1.38 1.57 1.33 1.24 0.49 0.59 0.73 0.35 0.14 0.09 0.06 0.02 0.01 0.02 0.02 0.01 0.03 0.05 0.06 0.05 0.05 0.07 0.08 0.07 0.07
1.45 1.41 1.39 1.74 1.34 1.32 1.47 2.33 3.18 3.83 4.00 3.43 2.77 2.77 3.39 3.74 4.39 4.27 3.37 2.25 2.06 1.66 1.20 0.85 0.45 0.44 0.70 1.00 1.62 2.00 1.68 1.37 0.87 0.50 0.87 0.34 0.10 0.02 0.06 0.09 0.10 0.08 0.05 0.04 0.03 0.03 0.07 0.16 0.20 0.20 0.16 0.14 0.11 0.10
1.68 1.44 1.47 1.75 1.38 1.43 1.61 1.83 2.05 3.19 3.43 3.40 3.58 3.99 3.69 3.32 3.13 2.34 1.42 0.97 0.79 0.57 0.49 0.41 0.45 0.62 0.85 1.22 2.06 1.91 1.81 1.17 0.67 0.81 0.50 0.13 0.04 0.10 0.16 0.09 0.04 0.03 0.05 0.14 0.24 0.30 0.25 0.21 0.16 0.18 0.28 0.26 0.24 0.21
1.81 1.56 1.74 1.94 1.60 1.66 1.86 1.97 2.40 3.21 3.60 4.40 4.16 3.78 2.49 1.84 0.92 0.45 0.36 0.33 0.20 0.24 0.29 0.33 0.64 0.79 0.90 1.25 1.50 1.64 1.04 0.87 0.94 0.55 0.20 0.10 0.12 0.20 0.19 0.15 0.11 0.06 0.05 0.13 0.14 0.18 0.23 0.25 0.26 0.25 0.27 0.31 0.32 0.40
1.99 2.02 2.46 2.46 2.12 2.10 2.01 2.43 3.22 3.40 3.89 3.98 3.42 2.25 1.28 0.65 0.39 0.35 0.27 0.27 0.36 0.39 0.51 0.66 0.90 0.91 1.16 1.55 1.31 1.23 1.23 0.73 0.23 0.10 0.11 0.16 0.28 0.39 0.42 0.41 0.35 0.22 0.17 0.23 0.27 0.34 0.37 0.17 0.16 0.33 0.50 0.54 0.42 0.43
2.54 3.20 3.31 2.66 2.45 2.53 2.64 3.46 4.46 4.36 4.36 3.61 2.89 1.64 0.75 0.45 0.41 0.43 0.41 0.46 0.53 0.61 0.76 1.24 1.41 1.41 1.53 1.43 1.26 0.80 0.66 0.33 0.25 0.38 0.47 0.49 0.63 0.69 0.71 0.71 0.72 0.71 0.66 0.56 0.80 0.94 0.72 0.38 0.26 0.33 0.46 0.60 0.54 0.45
3.77 3.68 2.68 2.13 2.53 3.07 3.46 4.52 5.55 5.53 4.93 3.87 1.79 0.82 0.72 0.65 0.65 0.68 0.59 0.59 0.66 1.00 1.09 1.65 1.91 1.15 0.96 1.03 0.47 0.23 0.27 0.25 0.45 0.64 0.69 0.72 0.76 0.69 0.60 0.67 0.78 0.93 1.06 0.83 0.86 0.93 0.89 0.67 0.40 0.25 0.30 0.27 0.17 0.11
3.14 2.15 1.79 2.30 3.36 4.61 6.11 5.61 5.20 4.89 3.72 1.97 0.82 0.49 0.45 0.53 0.53 0.44 0.43 0.53 0.85 1.09 1.18 1.60 1.42 1.31 1.03 0.62 0.31 0.24 0.29 0.33 0.42 0.51 0.70 0.79 0.75 0.80 0.73 0.80 0.83 0.77 0.74 0.64 0.53 0.47 0.35 0.21 0.20 0.22 0.19 0.15 0.12 0.08
2.07 1.72 1.90 2.59 3.27 4.62 5.50 5.34 4.22 3.55 1.73 0.78 0.47 0.35 0.26 0.32 0.31 0.36 0.37 0.47 0.73 0.79 1.09 1.28 1.49 1.07 0.52 0.35 0.33 0.32 0.36 0.40 0.50 0.56 0.68 0.69 0.60 0.55 0.47 0.41 0.38 0.35 0.36 0.34 0.27 0.26 0.22 0.16 0.14 0.11 0.10 0.06 0.04 0.03
2.91 2.69 2.55 2.85 2.99 4.53 4.95 4.24 3.00 1.70 0.85 0.43 0.38 0.30 0.25 0.42 0.35 0.27 0.27 0.27 0.37 0.86 1.56 1.44 0.87 0.61 0.67 0.70 0.64 0.54 0.61 0.61 0.45 0.34 0.40 0.36 0.24 0.12 0.06 0.04 0.04 0.02 0.03 0.03 0.05 0.04 0.03 0.03 0.02 0.01 0.01 0.01 0.01 0.03
5.36 4.79 4.70 4.90 5.75 5.80 4.50 2.62 1.78 1.16 0.60 0.42 0.37 0.31 0.39 0.30 0.37 0.41 0.49 0.48 1.05 1.64 1.32 0.80 0.65 0.72 0.68 0.69 0.76 0.69 0.64 0.37 0.19 0.12 0.11 0.06 0.03 0.01 0.00 0.00 0.00 0.00 0.00 0.00 0.00 0.00 0.01 0.00 0.00 0.00 0.01 0.01 0.02 0.04
5.47 5.44 6.72 6.66 6.82 6.15 4.48 2.48 1.29 0.81 0.65 0.65 0.46 0.46 0.61 0.53 0.46 0.59 0.83 1.21 1.50 0.98 0.70 0.62 0.61 0.62 0.50 0.47 0.39 0.27 0.20 0.05 0.03 0.02 0.02 0.02 0.02 0.01 0.00 0.00 0.00 0.00 0.00 0.00 0.00 0.01 0.00 0.00 0.00 0.01 0.03 0.02 0.03 0.03
4.40 4.64 5.07 5.39 5.39 4.63 3.42 1.65 1.17 0.94 0.66 0.61 0.54 0.69 0.73 0.61 0.56 0.68 1.11 1.09 0.81 0.68 0.61 0.49 0.44 0.31 0.23 0.16 0.11 0.05 0.05 0.06 0.03 0.01 0.00 0.00 0.00 0.00 0.00 0.00 0.00 0.00 0.00 0.00 0.00 0.00 0.00 0.00 0.01 0.02 0.03 0.04 0.04 0.04
4.68 5.39 5.30 4.82 3.60 2.95 2.15 1.63 1.04 0.70 0.76 0.68 0.70 0.68 0.65 0.56 0.66 0.82 0.71 0.34 0.47 0.59 0.56 0.61 0.47 0.28 0.20 0.15 0.14 0.13 0.10 0.09 0.08 0.07 0.04 0.02 0.01 0.00 0.00 0.00 0.01 0.01 0.01 0.00 0.00 0.01 0.01 0.02 0.03 0.05 0.07 0.10 0.11 0.09
7.50 7.33 4.53 3.87 2.51 1.39 0.83 0.61 0.52 0.38 0.34 0.29 0.43 0.51 0.50 0.57 0.64 0.61 0.33 0.29 0.40 0.50 0.58 0.56 0.45 0.36 0.24 0.20 0.16 0.14 0.15 0.18 0.13 0.13 0.15 0.15 0.08 0.04 0.03 0.02 0.01 0.02 0.01 0.02 0.04 0.05 0.05 0.06 0.09 0.12 0.14 0.15 0.19 0.21
5.26 3.66 2.71 1.31 0.75 0.31 0.28 0.25 0.20 0.16 0.15 0.26 0.36 0.39 0.47 0.53 0.59 0.45 0.22 0.29 0.43 0.55 0.55 0.44 0.31 0.23 0.18 0.17 0.15 0.15 0.12 0.15 0.17 0.20 0.25 0.27 0.25 0.20 0.12 0.08 0.05 0.04 0.04 0.10 0.20 0.24 0.18 0.13 0.14 0.16 0.17 0.16 0.22 0.32
2.96 1.92 0.96 0.34 0.12 0.06 0.07 0.08 0.08 0.10 0.24 0.33 0.31 0.31 0.45 0.72 0.47 0.24 0.24 0.34 0.42 0.50 0.52 0.46 0.30 0.22 0.20 0.20 0.22 0.24 0.22 0.22 0.22 0.18 0.24 0.33 0.32 0.27 0.28 0.33 0.34 0.25 0.31 0.38 0.37 0.36 0.37 0.32 0.28 0.26 0.30 0.29 0.29 0.39
1.14 0.37 0.31 0.25 0.10 0.06 0.09 0.12 0.14 0.18 0.22 0.22 0.19 0.30 0.44 0.35 0.20 0.22 0.29 0.39 0.47 0.48 0.49 0.49 0.39 0.31 0.29 0.27 0.28 0.31 0.32 0.32 0.35 0.37 0.42 0.46 0.45 0.40 0.36 0.48 0.63 0.68 0.69 0.64 0.69 0.74 0.66 0.60 0.52 0.46 0.45 0.47 0.40 0.40
0.46 0.28 0.14 0.17 0.20 0.22 0.20 0.16 0.16 0.14 0.10 0.14 0.16 0.18 0.20 0.16 0.17 0.23 0.30 0.38 0.44 0.45 0.44 0.42 0.42 0.38 0.36 0.35 0.39 0.46 0.45 0.39 0.33 0.37 0.28 0.25 0.32 0.44 0.50 0.54 0.68 0.77 0.74 0.78 0.70 0.70 0.80 0.85 0.88 0.86 0.74 0.61 0.50 0.50
0.31 0.20 0.16 0.15 0.14 0.16 0.15 0.11 0.10 0.12 0.10 0.09 0.06 0.07 0.08 0.14 0.22 0.29 0.32 0.36 0.41 0.46 0.48 0.47 0.45 0.44 0.43 0.42 0.43 0.46 0.48 0.47 0.46 0.46 0.62 0.47 0.34 0.44 0.61 0.69 0.72 0.75 0.82 0.84 0.78 0.77 0.78 0.81 0.79 0.72 0.67 0.62 0.57 0.52
0.21 0.18 0.16 0.18 0.21 0.21 0.23 0.26 0.25 0.18 0.16 0.15 0.13 0.11 0.11 0.15 0.22 0.28 0.29 0.33 0.39 0.45 0.48 0.50 0.49 0.49 0.48 0.50 0.49 0.48 0.51 0.53 0.57 0.56 0.58 0.76 0.78 0.76 0.74 0.77 0.84 0.94 0.94 0.84 0.74 0.67 0.61 0.60 0.56 0.53 0.53 0.52 0.50 0.48
0.32 0.26 0.15 0.19 0.28 0.34 0.35 0.35 0.32 0.28 0.28 0.23 0.23 0.21 0.21 0.17 0.18 0.22 0.29 0.32 0.35 0.38 0.43 0.43 0.37 0.39 0.42 0.43 0.48 0.56 0.58 0.59 0.65 0.71 0.80 0.91 0.89 0.74 0.73 0.80 0.88 0.95 0.92 0.83 0.71 0.65 0.62 0.65 0.67 0.64 0.62 0.57 0.50 0.45
0.49 0.40 0.33 0.30 0.35 0.40 0.38 0.36 0.46 0.45 0.36 0.30 0.27 0.23 0.19 0.15 0.16 0.21 0.27 0.27 0.28 0.32 0.36 0.39 0.42 0.45 0.48 0.50 0.54 0.61 0.65 0.68 0.68 0.81 1.06 1.09 1.06 1.04 1.04 0.97 0.83 0.79 0.75 0.70 0.68 0.73 0.74 0.73 0.67 0.63 0.61 0.56 0.49 0.46

GFSWCAN_prec_precacc_213.txt.gz
Total_Precipitation_Accumulation
1.29 1.34 1.51 1.30 1.04 0.74 0.72 0.73 1.16 1.62 1.44 1.30 1.31 0.99 0.94 0.67 0.60 0.81 0.47 0.54 0.95 0.82 0.23 0.05 0.05 0.17 0.47 0.45 0.47 0.44 0.58 0.40 0.54 0.66 0.52 0.27 0.20 0.14 0.10 0.05 0.05 0.12 0.15 0.13 0.19 0.27 0.07 0.00 0.01 0.05 0.05 0.01 0.00 0.01
1.26 1.27 1.22 1.17 1.24 1.35 0.96 0.92 1.20 1.44 1.22 1.03 0.86 0.76 0.77 0.67 0.64 1.03 0.71 0.42 0.72 0.89 0.44 0.08 0.06 0.08 0.28 0.40 0.52 0.53 0.62 0.41 0.56 0.65 0.54 0.38 0.28 0.16 0.11 0.13 0.02 0.09 0.11 0.14 0.09 0.07 0.02 0.02 0.09 0.05 0.03 0.02 0.00 0.00
1.79 1.53 1.32 1.13 0.87 1.01 1.49 1.64 1.48 1.35 1.03 0.86 0.70 0.65 0.72 0.71 0.72 1.15 0.80 0.55 0.86 0.91 0.50 0.14 0.08 0.03 0.10 0.22 0.40 0.59 0.46 0.34 0.47 0.44 0.78 0.58 0.41 0.18 0.19 0.14 0.08 0.05 0.09 0.17 0.13 0.02 0.01 0.01 0.01 0.03 0.06 0.05 0.01 0.00
2.21 1.74 1.45 1.44 1.35 0.97 1.13 1.81 1.94 1.64 1.25 0.90 0.72 0.70 0.60 0.62 0.78 1.10 0.71 0.51 0.91 1.43 1.51 0.36 0.04 0.01 0.04 0.19 0.30 0.37 0.53 0.39 0.43 0.60 0.98 1.15 0.63 0.17 0.09 0.08 0.06 0.05 0.04 0.06 0.07 0.01 0.01 0.01 0.01 0.01 0.01 0.01 0.01 0.00
2.74 2.38 1.75 1.40 1.51 1.63 1.30 1.35 1.35 1.29 1.17 0.78 0.68 0.72 0.71 0.78 1.01 1.02 0.67 0.59 0.63 1.23 1.48 0.55 0.15 0.04 0.03 0.17 0.34 0.41 0.55 0.81 0.79 1.02 1.24 0.84 0.36 0.26 0.19 0.18 0.12 0.00 0.01 0.04 0.05 0.01 0.03 0.04 0.01 0.01 0.02 0.01 0.00 0.00
3.10 3.17 2.95 2.14 1.57 1.52 1.71 1.41 1.33 1.15 1.02 0.67 0.66 0.83 0.92 0.94 1.51 1.67 2.50 1.49 0.74 0.96 2.47 1.84 0.60 0.17 0.10 0.23 0.43 0.57 0.58 0.69 1.17 1.52 1.26 0.66 0.25 0.50 1.06 0.41 0.02 0.00 0.01 0.01 0.01 0.01 0.03 0.03 0.01 0.01 0.01 0.01 0.01 0.00
2.63 2.97 3.64 3.71 2.67 2.10 2.16 1.59 1.36 1.22 1.07 0.85 0.88 0.90 0.88 1.12 1.50 1.93 2.39 1.32 0.96 1.42 3.19 2.92 1.62 0.57 0.25 0.35 0.65 0.80 0.81 0.88 1.13 1.67 1.22 0.69 0.40 1.02 1.62 0.67 0.04 0.01 0.01 0.01 0.02 0.06 0.08 0.01 0.02 0.01 0.02 0.01 0.01 0.01
2.19 2.42 2.88 3.86 4.02 3.38 2.70 1.95 1.49 1.39 1.29 1.12 1.12 1.15 1.28 1.77 2.06 1.93 1.26 0.94 1.21 2.14 3.26 3.37 1.82 0.77 0.53 0.63 0.93 0.95 0.95 1.06 1.26 1.41 0.95 0.49 0.58 1.12 1.24 0.18 0.04 0.04 0.03 0.01 0.01 0.02 0.05 0.02 0.02 0.04 0.05 0.03 0.02 0.01
2.00 1.94 2.09 2.66 2.98 3.48 3.60 3.25 2.22 1.75 1.72 1.81 2.13 2.44 2.91 2.84 2.26 1.80 1.47 1.59 1.65 3.06 4.93 3.01 1.08 0.75 0.70 0.55 0.72 0.87 1.06 1.51 1.42 1.05 0.82 0.71 0.74 0.85 0.37 0.10 0.02 0.00 0.04 0.05 0.02 0.00 0.01 0.03 0.03 0.01 0.02 0.03 0.03 0.06
1.88 1.72 1.66 2.01 1.76 2.12 2.96 3.19 3.28 2.73 2.65 3.24 3.45 3.68 3.75 2.99 2.40 2.50 3.38 4.37 5.01 4.56 3.51 1.88 0.66 0.61 0.69 0.65 1.06 1.28 1.41 1.41 1.29 0.72 0.60 1.02 0.58 0.22 0.10 0.03 0.01 0.01 0.02 0.02 0.03 0.02 0.02 0.04 0.03 0.02 0.02 0.03 0.06 0.06
1.57 1.58 1.44 1.84 1.42 1.42 1.97 3.19 3.34 3.39 3.76 3.89 3.56 3.02 3.00 2.67 3.33 4.23 4.81 4.46 4.15 3.53 2.28 1.30 0.78 0.62 0.56 0.79 1.10 1.38 1.58 1.33 1.26 0.49 0.61 0.77 0.43 0.15 0.09 0.06 0.02 0.01 0.02 0.02 0.01 0.03 0.05 0.06 0.05 0.05 0.07 0.08 0.07 0.07
1.46 1.42 1.40 1.75 1.34 1.32 1.48 2.34 3.20 3.84 4.01 3.44 2.79 2.78 3.40 3.75 4.39 4.27 3.37 2.25 2.06 1.67 1.23 0.87 0.45 0.44 0.70 1.00 1.62 2.00 1.70 1.39 0.88 0.55 0.99 0.44 0.13 0.02 0.06 0.09 0.10 0.08 0.05 0.04 0.03 0.03 0.07 0.16 0.20 0.20 0.16 0.14 0.11 0.10
1.69 1.44 1.47 1.75 1.38 1.43 1.61 1.84 2.06 3.23 3.44 3.40 3.58 4.00 3.70 3.33 3.13 2.34 1.42 0.97 0.80 0.57 0.49 0.41 0.45 0.62 0.85 1.22 2.06 1.92 1.83 1.19 0.70 0.94 0.59 0.15 0.04 0.10 0.16 0.10 0.06 0.04 0.05 0.15 0.25 0.31 0.26 0.21 0.16 0.18 0.28 0.26 0.24 0.21
1.82 1.56 1.74 1.95 1.61 1.67 1.86 1.97 2.41 3.25 3.60 4.40 4.18 3.80 2.50 1.84 0.92 0.45 0.36 0.33 0.20 0.24 0.30 0.33 0.64 0.79 0.90 1.26 1.51 1.66 1.07 0.92 0.96 0.55 0.20 0.11 0.13 0.22 0.20 0.17 0.15 0.09 0.08 0.18 0.23 0.23 0.23 0.25 0.26 0.26 0.27 0.31 0.32 0.40
2.00 2.03 2.47 2.46 2.13 2.10 2.01 2.43 3.23 3.41 3.90 3.99 3.43 2.25 1.28 0.65 0.39 0.35 0.27 0.28 0.40 0.43 0.53 0.66 0.90 0.91 1.17 1.56 1.33 1.27 1.27 0.75 0.25 0.12 0.13 0.19 0.31 0.43 0.48 0.47 0.40 0.27 0.24 0.34 0.46 0.47 0.43 0.21 0.18 0.34 0.51 0.54 0.43 0.44
2.56 3.20 3.31 2.66 2.45 2.55 2.64 3.46 4.46 4.37 4.38 3.62 2.90 1.64 0.75 0.45 0.41 0.43 0.42 0.48 0.55 0.61 0.76 1.24 1.42 1.42 1.56 1.47 1.31 0.83 0.67 0.35 0.28 0.42 0.53 0.53 0.66 0.76 0.79 0.79 0.79 0.79 0.75 0.66 0.95 1.10 0.86 0.50 0.36 0.38 0.49 0.63 0.57 0.47
3.77 3.68 2.68 2.14 2.56 3.08 3.46 4.52 5.56 5.54 4.93 3.87 1.79 0.82 0.72 0.66 0.68 0.70 0.62 0.62 0.68 1.02 1.09 1.66 1.94 1.19 0.99 1.06 0.49 0.24 0.29 0.29 0.48 0.69 0.75 0.77 0.81 0.75 0.66 0.74 0.88 1.02 1.15 0.94 0.99 1.06 1.10 0.91 0.57 0.30 0.35 0.34 0.23 0.16
3.14 2.15 1.80 2.32 3.37 4.61 6.11 5.61 5.20 4.89 3.72 1.97 0.82 0.49 0.48 0.55 0.53 0.44 0.44 0.54 0.87 1.10 1.21 1.64 1.45 1.33 1.04 0.64 0.32 0.27 0.31 0.36 0.47 0.56 0.72 0.80 0.76 0.81 0.75 0.82 0.87 0.82 0.80 0.72 0.60 0.55 0.44 0.30 0.28 0.29 0.26 0.21 0.18 0.15
2.07 1.72 1.90 2.59 3.27 4.62 5.50 5.34 4.22 3.55 1.73 0.78 0.47 0.36 0.31 0.34 0.31 0.36 0.38 0.48 0.76 0.81 1.11 1.29 1.50 1.08 0.54 0.38 0.35 0.35 0.40 0.44 0.55 0.58 0.69 0.69 0.60 0.55 0.47 0.41 0.38 0.35 0.36 0.35 0.29 0.31 0.28 0.21 0.21 0.18 0.17 0.10 0.08 0.06
2.92 2.69 2.55 2.85 2.99 4.53 4.95 4.24 3.00 1.70 0.85 0.43 0.38 0.31 0.28 0.44 0.36 0.27 0.27 0.29 0.38 0.87 1.56 1.44 0.88 0.62 0.70 0.72 0.67 0.57 0.65 0.66 0.48 0.35 0.40 0.36 0.24 0.12 0.06 0.04 0.04 0.02 0.03 0.03 0.05 0.04 0.03 0.03 0.03 0.02 0.01 0.01 0.02 0.03
5.36 4.79 4.70 4.90 5.75 5.80 4.50 2.62 1.78 1.16 0.60 0.42 0.37 0.31 0.40 0.32 0.40 0.42 0.49 0.48 1.06 1.64 1.33 0.81 0.67 0.75 0.72 0.72 0.79 0.73 0.69 0.40 0.20 0.12 0.11 0.06 0.03 0.01 0.00 0.00 0.00 0.00 0.00 0.00 0.00 0.00 0.01 0.00 0.01 0.00 0.01 0.02 0.02 0.05
5.47 5.44 6.72 6.66 6.82 6.15 4.48 2.48 1.29 0.81 0.65 0.65 0.46 0.46 0.61 0.54 0.47 0.61 0.85 1.21 1.51 1.00 0.72 0.64 0.63 0.65 0.52 0.50 0.42 0.29 0.21 0.05 0.03 0.03 0.02 0.02 0.02 0.01 0.00 0.00 0.00 0.00 0.00 0.01 0.01 0.01 0.01 0.01 0.00 0.01 0.03 0.02 0.03 0.04
4.40 4.64 5.07 5.39 5.39 4.63 3.42 1.65 1.17 0.94 0.66 0.61 0.54 0.69 0.73 0.61 0.57 0.69 1.12 1.10 0.82 0.69 0.62 0.51 0.46 0.33 0.25 0.18 0.11 0.05 0.06 0.07 0.03 0.01 0.00 0.00 0.00 0.00 0.00 0.00 0.00 0.00 0.01 0.00 0.00 0.00 0.01 0.01 0.01 0.02 0.03 0.04 0.04 0.04
4.68 5.39 5.30 4.82 3.60 2.95 2.15 1.63 1.04 0.70 0.76 0.68 0.70 0.68 0.65 0.56 0.66 0.83 0.72 0.35 0.48 0.60 0.56 0.62 0.48 0.29 0.21 0.16 0.16 0.15 0.11 0.09 0.08 0.07 0.04 0.02 0.01 0.00 0.00 0.00 0.01 0.01 0.01 0.01 0.00 0.01 0.02 0.02 0.04 0.05 0.07 0.10 0.11 0.09
7.50 7.33 4.53 3.87 2.51 1.39 0.83 0.61 0.52 0.38 0.34 0.29 0.43 0.51 0.50 0.57 0.64 0.61 0.33 0.30 0.41 0.51 0.58 0.56 0.46 0.37 0.26 0.21 0.18 0.14 0.15 0.18 0.13 0.13 0.15 0.15 0.08 0.04 0.03 0.02 0.01 0.02 0.01 0.02 0.05 0.05 0.05 0.06 0.09 0.12 0.14 0.15 0.19 0.21
5.26 3.66 2.71 1.31 0.75 0.31 0.28 0.25 0.20 0.16 0.15 0.26 0.36 0.39 0.47 0.53 0.59 0.45 0.22 0.30 0.44 0.56 0.56 0.44 0.31 0.23 0.18 0.17 0.15 0.15 0.12 0.15 0.17 0.20 0.25 0.27 0.25 0.20 0.12 0.08 0.05 0.04 0.04 0.11 0.21 0.24 0.18 0.14 0.14 0.16 0.17 0.16 0.23 0.32
2.96 1.92 0.96 0.34 0.12 0.06 0.07 0.08 0.08 0.10 0.24 0.33 0.31 0.31 0.45 0.72 0.47 0.24 0.24 0.34 0.42 0.52 0.52 0.46 0.30 0.22 0.20 0.20 0.22 0.24 0.22 0.22 0.22 0.18 0.24 0.33 0.32 0.28 0.29 0.34 0.35 0.25 0.31 0.39 0.38 0.36 0.37 0.32 0.29 0.26 0.30 0.29 0.29 0.39
1.14 0.37 0.31 0.25 0.10 0.06 0.09 0.12 0.14 0.18 0.22 0.22 0.19 0.30 0.44 0.35 0.20 0.22 0.30 0.39 0.48 0.49 0.49 0.49 0.39 0.31 0.29 0.27 0.28 0.31 0.32 0.32 0.35 0.37 0.42 0.46 0.45 0.40 0.36 0.48 0.64 0.70 0.70 0.64 0.70 0.75 0.67 0.60 0.52 0.46 0.45 0.47 0.40 0.40
0.46 0.28 0.14 0.17 0.20 0.22 0.20 0.16 0.16 0.14 0.10 0.14 0.16 0.18 0.20 0.16 0.17 0.23 0.31 0.39 0.45 0.46 0.44 0.42 0.42 0.38 0.36 0.35 0.39 0.46 0.45 0.39 0.33 0.37 0.28 0.25 0.32 0.44 0.50 0.54 0.68 0.77 0.74 0.78 0.70 0.71 0.81 0.86 0.88 0.86 0.74 0.61 0.50 0.50
0.31 0.20 0.16 0.15 0.14 0.16 0.15 0.11 0.10 0.12 0.10 0.09 0.06 0.07 0.08 0.14 0.22 0.29 0.32 0.37 0.43 0.46 0.48 0.47 0.45 0.44 0.43 0.42 0.43 0.46 0.48 0.47 0.46 0.46 0.62 0.47 0.34 0.44 0.61 0.69 0.72 0.75 0.82 0.84 0.78 0.77 0.78 0.81 0.79 0.72 0.67 0.62 0.57 0.52
0.21 0.18 0.16 0.18 0.21 0.21 0.23 0.26 0.25 0.18 0.16 0.15 0.13 0.11 0.11 0.15 0.22 0.28 0.30 0.34 0.40 0.45 0.48 0.50 0.49 0.49 0.48 0.50 0.49 0.48 0.51 0.53 0.57 0.56 0.58 0.76 0.78 0.76 0.74 0.77 0.84 0.95 0.94 0.84 0.74 0.67 0.61 0.60 0.56 0.53 0.53 0.52 0.50 0.48
0.32 0.26 0.15 0.19 0.28 0.34 0.36 0.36 0.33 0.28 0.28 0.23 0.23 0.21 0.21 0.17 0.18 0.22 0.29 0.32 0.35 0.38 0.43 0.43 0.37 0.39 0.42 0.43 0.48 0.56 0.58 0.59 0.65 0.71 0.81 0.91 0.89 0.74 0.74 0.80 0.88 0.96 0.93 0.83 0.71 0.65 0.62 0.65 0.67 0.64 0.62 0.57 0.50 0.45
0.50 0.41 0.33 0.30 0.35 0.41 0.38 0.36 0.47 0.45 0.36 0.30 0.27 0.23 0.19 0.15 0.16 0.21 0.27 0.27 0.28 0.32 0.36 0.39 0.42 0.45 0.48 0.50 0.54 0.61 0.65 0.68 0.68 0.81 1.06 1.10 1.07 1.05 1.05 0.98 0.84 0.79 0.75 0.70 0.68 0.73 0.74 0.73 0.67 0.63 0.61 0.56 0.49 0.46

GFSWCAN_prec_precacc_219.txt.gz
Total_Precipitation_Accumulation
1.29 1.34 1.51 1.31 1.04 0.74 0.72 0.73 1.17 1.62 1.44 1.31 1.32 0.99 0.94 0.69 0.66 0.87 0.49 0.55 1.00 0.92 0.25 0.05 0.05 0.17 0.48 0.47 0.50 0.46 0.62 0.41 0.56 0.68 0.53 0.28 0.20 0.14 0.10 0.05 0.05 0.12 0.16 0.14 0.20 0.28 0.07 0.00 0.01 0.05 0.05 0.01 0.00 0.01
1.26 1.27 1.22 1.18 1.24 1.35 0.96 0.93 1.20 1.44 1.22 1.04 0.87 0.76 0.78 0.70 0.70 1.09 0.72 0.43 0.74 0.93 0.45 0.08 0.06 0.08 0.28 0.40 0.53 0.57 0.68 0.41 0.61 0.71 0.57 0.41 0.30 0.18 0.13 0.14 0.02 0.10 0.12 0.14 0.10 0.07 0.02 0.02 0.09 0.05 0.03 0.02 0.00 0.00
1.79 1.53 1.32 1.13 0.87 1.01 1.49 1.65 1.49 1.36 1.05 0.88 0.71 0.66 0.74 0.73 0.74 1.21 0.82 0.56 0.87 0.94 0.51 0.14 0.08 0.03 0.10 0.22 0.40 0.62 0.46 0.35 0.49 0.48 0.91 0.69 0.47 0.20 0.21 0.15 0.08 0.05 0.10 0.18 0.15 0.03 0.01 0.01 0.01 0.03 0.06 0.05 0.01 0.00
2.21 1.75 1.45 1.44 1.36 0.98 1.14 1.82 1.95 1.66 1.28 0.92 0.73 0.71 0.61 0.64 0.80 1.17 0.74 0.52 0.94 1.48 1.56 0.36 0.04 0.01 0.04 0.19 0.30 0.37 0.53 0.39 0.46 0.66 1.18 1.30 0.70 0.19 0.11 0.09 0.07 0.06 0.06 0.07 0.08 0.02 0.01 0.01 0.01 0.01 0.01 0.01 0.01 0.00
2.74 2.38 1.76 1.41 1.51 1.64 1.32 1.36 1.35 1.31 1.19 0.80 0.68 0.73 0.71 0.80 1.05 1.05 0.67 0.59 0.63 1.27 1.50 0.55 0.15 0.04 0.03 0.17 0.34 0.41 0.55 0.81 0.80 1.09 1.35 0.88 0.38 0.30 0.23 0.21 0.14 0.02 0.07 0.11 0.10 0.01 0.04 0.04 0.01 0.01 0.02 0.01 0.00 0.00
3.11 3.17 2.96 2.15 1.57 1.53 1.71 1.41 1.34 1.16 1.03 0.67 0.67 0.83 0.92 0.95 1.54 1.69 2.51 1.49 0.74 0.97 2.54 1.87 0.60 0.17 0.10 0.23 0.43 0.57 0.58 0.69 1.18 1.55 1.28 0.67 0.26 0.63 1.19 0.42 0.04 0.06 0.03 0.03 0.04 0.02 0.04 0.03 0.01 0.01 0.01 0.01 0.01 0.00
2.64 2.98 3.64 3.72 2.67 2.10 2.16 1.59 1.37 1.23 1.08 0.85 0.89 0.90 0.88 1.12 1.52 1.96 2.41 1.35 1.05 1.54 3.50 3.09 1.64 0.57 0.25 0.35 0.65 0.80 0.81 0.88 1.13 1.69 1.24 0.71 0.42 1.29 1.79 0.77 0.09 0.02 0.01 0.01 0.02 0.08 0.10 0.01 0.02 0.01 0.02 0.01 0.02 0.01
2.19 2.43 2.88 3.86 4.03 3.39 2.71 1.95 1.50 1.39 1.30 1.12 1.12 1.15 1.28 1.77 2.06 1.93 1.27 0.96 1.26 2.22 3.32 3.41 1.82 0.78 0.53 0.64 0.93 0.95 0.95 1.06 1.26 1.42 0.97 0.52 0.70 1.36 1.45 0.25 0.05 0.04 0.03 0.01 0.01 0.02 0.06 0.03 0.02 0.04 0.06 0.04 0.04 0.02
2.00 1.94 2.10 2.66 2.99 3.49 3.61 3.26 2.23 1.76 1.73 1.82 2.13 2.44 2.91 2.84 2.26 1.80 1.47 1.59 1.66 3.12 5.00 3.05 1.10 0.78 0.73 0.56 0.72 0.87 1.06 1.51 1.42 1.07 0.84 0.79 0.89 1.00 0.48 0.14 0.02 0.01 0.05 0.06 0.02 0.00 0.01 0.03 0.03 0.01 0.02 0.03 0.05 0.06
1.89 1.72 1.66 2.02 1.77 2.12 2.96 3.19 3.29 2.74 2.65 3.24 3.45 3.68 3.75 2.99 2.40 2.50 3.38 4.37 5.01 4.62 3.61 1.92 0.70 0.73 0.74 0.65 1.06 1.28 1.41 1.41 1.31 0.73 0.70 1.19 0.69 0.28 0.10 0.03 0.02 0.04 0.04 0.04 0.09 0.06 0.04 0.05 0.03 0.02 0.03 0.03 0.06 0.06
1.57 1.58 1.44 1.85 1.43 1.42 1.97 3.20 3.34 3.40 3.76 3.89 3.56 3.02 3.00 2.67 3.33 4.23 4.81 4.46 4.15 3.53 2.29 1.33 0.87 0.64 0.56 0.79 1.10 1.38 1.59 1.35 1.30 0.54 0.86 0.95 0.47 0.15 0.09 0.06 0.03 0.03 0.04 0.04 0.06 0.09 0.09 0.11 0.10 0.08 0.08 0.08 0.07 0.07
1.46 1.43 1.40 1.75 1.34 1.33 1.49 2.34 3.20 3.84 4.01 3.45 2.80 2.78 3.40 3.75 4.40 4.27 3.37 2.25 2.06 1.67 1.24 0.88 0.46 0.44 0.70 1.00 1.63 2.01 1.73 1.43 0.97 0.66 1.13 0.47 0.13 0.02 0.07 0.11 0.13 0.12 0.12 0.12 0.12 0.19 0.21 0.25 0.24 0.21 0.17 0.14 0.11 0.11
1.69 1.45 1.47 1.75 1.38 1.44 1.61 1.84 2.07 3.25 3.44 3.40 3.58 4.00 3.71 3.33 3.13 2.35 1.42 0.97 0.80 0.58 0.51 0.43 0.46 0.62 0.85 1.22 2.06 1.94 1.87 1.26 0.78 0.96 0.60 0.16 0.04 0.11 0.20 0.15 0.10 0.05 0.09 0.24 0.38 0.47 0.38 0.26 0.18 0.20 0.30 0.30 0.31 0.30
1.83 1.56 1.74 1.95 1.61 1.67 1.86 1.98 2.41 3.25 3.60 4.40 4.18 3.80 2.50 1.84 0.92 0.45 0.36 0.33 0.22 0.30 0.39 0.37 0.66 0.80 0.90 1.26 1.53 1.70 1.10 1.00 0.98 0.56 0.21 0.12 0.18 0.27 0.25 0.22 0.20 0.13 0.15 0.31 0.45 0.43 0.34 0.35 0.35 0.35 0.38 0.42 0.42 0.46
2.00 2.03 2.47 2.46 2.13 2.10 2.03 2.43 3.23 3.41 3.90 4.00 3.44 2.26 1.28 0.65 0.39 0.35 0.28 0.31 0.44 0.49 0.56 0.68 0.91 0.92 1.17 1.58 1.37 1.33 1.33 0.78 0.26 0.15 0.16 0.25 0.40 0.51 0.54 0.54 0.50 0.37 0.36 0.49 0.65 0.65 0.60 0.38 0.32 0.47 0.65 0.65 0.49 0.49
2.56 3.20 3.31 2.66 2.45 2.57 2.65 3.46 4.46 4.37 4.39 3.64 2.91 1.64 0.75 0.45 0.41 0.44 0.43 0.50 0.57 0.62 0.76 1.25 1.43 1.43 1.57 1.53 1.37 0.87 0.70 0.37 0.30 0.46 0.58 0.57 0.71 0.80 0.82 0.85 0.90 0.91 0.89 0.81 1.13 1.28 1.02 0.68 0.56 0.58 0.61 0.73 0.65 0.56
3.77 3.68 2.68 2.14 2.57 3.09 3.46 4.52 5.56 5.55 4.94 3.88 1.79 0.83 0.72 0.66 0.69 0.73 0.65 0.67 0.70 1.02 1.09 1.68 1.96 1.21 1.02 1.11 0.51 0.26 0.31 0.31 0.51 0.73 0.81 0.82 0.86 0.78 0.67 0.75 0.90 1.07 1.23 1.05 1.09 1.19 1.26 1.05 0.66 0.37 0.46 0.47 0.35 0.32
3.14 2.15 1.80 2.33 3.37 4.61 6.11 5.61 5.20 4.90 3.73 1.97 0.82 0.49 0.48 0.56 0.55 0.45 0.45 0.56 0.88 1.11 1.22 1.66 1.47 1.34 1.06 0.65 0.34 0.29 0.34 0.38 0.50 0.62 0.78 0.86 0.79 0.81 0.75 0.82 0.87 0.83 0.81 0.75 0.65 0.59 0.47 0.32 0.33 0.39 0.39 0.32 0.28 0.28
2.07 1.72 1.91 2.59 3.27 4.62 5.50 5.34 4.22 3.55 1.73 0.78 0.47 0.36 0.31 0.36 0.31 0.36 0.39 0.49 0.77 0.82 1.12 1.30 1.51 1.09 0.55 0.39 0.37 0.37 0.43 0.47 0.58 0.62 0.74 0.72 0.60 0.55 0.47 0.41 0.38 0.35 0.36 0.35 0.30 0.31 0.28 0.22 0.23 0.21 0.21 0.12 0.10 0.09
2.92 2.69 2.55 2.85 2.99 4.53 4.95 4.24 3.01 1.70 0.86 0.44 0.38 0.31 0.29 0.46 0.37 0.27 0.27 0.29 0.39 0.88 1.56 1.45 0.88 0.63 0.71 0.74 0.70 0.61 0.68 0.69 0.52 0.39 0.43 0.36 0.24 0.12 0.06 0.04 0.04 0.02 0.03 0.03 0.05 0.04 0.04 0.03 0.03 0.02 0.01 0.01 0.02 0.04
5.36 4.79 4.70 4.90 5.75 5.80 4.50 2.62 1.79 1.17 0.60 0.43 0.37 0.31 0.41 0.33 0.41 0.42 0.49 0.48 1.06 1.64 1.33 0.82 0.69 0.77 0.75 0.75 0.82 0.76 0.71 0.43 0.24 0.15 0.12 0.07 0.03 0.01 0.00 0.00 0.00 0.00 0.00 0.00 0.00 0.00 0.01 0.01 0.01 0.01 0.01 0.02 0.03 0.05
5.47 5.44 6.72 6.66 6.82 6.15 4.48 2.48 1.29 0.81 0.65 0.65 0.46 0.46 0.62 0.54 0.47 0.61 0.85 1.21 1.51 1.00 0.73 0.65 0.65 0.67 0.55 0.52 0.44 0.30 0.23 0.08 0.05 0.03 0.02 0.02 0.02 0.01 0.01 0.00 0.00 0.01 0.01 0.01 0.02 0.02 0.02 0.02 0.01 0.01 0.03 0.03 0.04 0.04
4.40 4.64 5.07 5.39 5.39 4.63 3.42 1.65 1.17 0.94 0.66 0.61 0.54 0.69 0.73 0.61 0.57 0.69 1.13 1.10 0.83 0.69 0.62 0.52 0.47 0.35 0.27 0.20 0.13 0.07 0.08 0.07 0.03 0.01 0.00 0.00 0.00 0.00 0.00 0.00 0.00 0.01 0.01 0.01 0.01 0.01 0.02 0.01 0.02 0.02 0.03 0.04 0.04 0.04
4.68 5.39 5.30 4.82 3.60 2.95 2.15 1.63 1.04 0.70 0.76 0.68 0.70 0.68 0.65 0.56 0.67 0.83 0.72 0.35 0.49 0.61 0.57 0.62 0.49 0.31 0.22 0.18 0.17 0.16 0.12 0.09 0.08 0.07 0.04 0.02 0.01 0.00 0.00 0.00 0.01 0.02 0.02 0.02 0.00 0.01 0.02 0.03 0.04 0.06 0.07 0.10 0.11 0.09
7.50 7.33 4.53 3.87 2.51 1.39 0.83 0.61 0.52 0.38 0.34 0.29 0.43 0.51 0.50 0.57 0.64 0.61 0.33 0.31 0.42 0.52 0.60 0.57 0.47 0.38 0.27 0.23 0.18 0.15 0.15 0.18 0.13 0.13 0.15 0.15 0.08 0.04 0.03 0.02 0.01 0.02 0.01 0.03 0.05 0.06 0.06 0.06 0.09 0.12 0.14 0.16 0.19 0.21
5.26 3.66 2.71 1.31 0.75 0.31 0.28 0.25 0.20 0.16 0.15 0.26 0.36 0.39 0.47 0.53 0.59 0.45 0.22 0.30 0.45 0.58 0.57 0.46 0.33 0.24 0.19 0.17 0.15 0.15 0.12 0.15 0.17 0.20 0.25 0.27 0.25 0.20 0.13 0.08 0.05 0.04 0.04 0.12 0.22 0.25 0.19 0.14 0.14 0.16 0.18 0.17 0.23 0.33
2.96 1.92 0.96 0.34 0.12 0.06 0.07 0.08 0.08 0.10 0.24 0.33 0.31 0.31 0.45 0.72 0.47 0.24 0.24 0.34 0.43 0.53 0.53 0.47 0.30 0.22 0.20 0.20 0.22 0.24 0.22 0.22 0.22 0.18 0.24 0.33 0.32 0.28 0.29 0.35 0.36 0.26 0.33 0.40 0.39 0.38 0.39 0.33 0.29 0.26 0.30 0.29 0.29 0.39
1.14 0.37 0.31 0.26 0.10 0.06 0.09 0.12 0.14 0.18 0.22 0.22 0.19 0.30 0.44 0.35 0.20 0.22 0.30 0.40 0.49 0.50 0.50 0.50 0.39 0.31 0.29 0.27 0.28 0.31 0.32 0.32 0.35 0.37 0.42 0.46 0.45 0.40 0.36 0.49 0.65 0.72 0.72 0.66 0.71 0.76 0.68 0.61 0.52 0.47 0.46 0.47 0.40 0.40
0.46 0.28 0.14 0.17 0.20 0.22 0.20 0.16 0.16 0.14 0.10 0.14 0.16 0.18 0.20 0.16 0.17 0.23 0.31 0.39 0.47 0.48 0.46 0.43 0.42 0.38 0.36 0.35 0.39 0.46 0.45 0.39 0.33 0.37 0.28 0.25 0.32 0.44 0.50 0.54 0.69 0.78 0.75 0.79 0.71 0.73 0.82 0.87 0.89 0.86 0.74 0.61 0.50 0.50
0.31 0.20 0.17 0.16 0.15 0.16 0.15 0.11 0.10 0.12 0.10 0.09 0.07 0.08 0.09 0.14 0.22 0.29 0.32 0.37 0.43 0.48 0.50 0.49 0.45 0.44 0.43 0.42 0.43 0.46 0.48 0.47 0.46 0.46 0.62 0.47 0.34 0.44 0.61 0.69 0.73 0.76 0.83 0.85 0.78 0.78 0.78 0.81 0.79 0.72 0.67 0.62 0.57 0.52
0.21 0.18 0.17 0.18 0.21 0.21 0.23 0.27 0.25 0.19 0.16 0.16 0.14 0.12 0.12 0.15 0.22 0.28 0.30 0.34 0.41 0.47 0.49 0.51 0.49 0.49 0.48 0.50 0.49 0.48 0.51 0.53 0.57 0.56 0.58 0.76 0.78 0.76 0.74 0.78 0.85 0.97 0.95 0.85 0.74 0.67 0.61 0.60 0.56 0.53 0.53 0.52 0.50 0.48
0.32 0.27 0.15 0.19 0.28 0.34 0.36 0.36 0.33 0.28 0.29 0.24 0.24 0.23 0.21 0.17 0.18 0.22 0.29 0.32 0.36 0.39 0.44 0.44 0.38 0.39 0.42 0.43 0.48 0.56 0.58 0.59 0.65 0.71 0.81 0.92 0.90 0.75 0.74 0.81 0.90 0.97 0.94 0.84 0.71 0.65 0.62 0.65 0.67 0.64 0.62 0.57 0.51 0.46
0.50 0.41 0.34 0.31 0.36 0.41 0.39 0.36 0.47 0.45 0.36 0.30 0.27 0.24 0.20 0.16 0.17 0.21 0.27 0.27 0.28 0.32 0.36 0.39 0.42 0.45 0.48 0.50 0.54 0.61 0.65 0.68 0.68 0.82 1.07 1.12 1.09 1.07 1.06 1.00 0.84 0.80 0.76 0.71 0.68 0.73 0.74 0.73 0.67 0.63 0.61 0.56 0.50 0.46

GFSWCAN_prec_precacc_222.txt.gz
Total_Precipitation_Accumulation
1.29 1.34 1.51 1.31 1.04 0.74 0.73 0.73 1.17 1.62 1.44 1.31 1.32 1.00 0.94 0.69 0.67 0.89 0.50 0.57 1.02 0.94 0.25 0.05 0.05 0.17 0.48 0.47 0.52 0.47 0.63 0.42 0.57 0.69 0.54 0.28 0.21 0.14 0.11 0.05 0.05 0.12 0.16 0.14 0.20 0.29 0.07 0.00 0.02 0.05 0.05 0.01 0.00 0.01
1.26 1.27 1.22 1.18 1.24 1.35 0.96 0.93 1.21 1.45 1.23 1.04 0.88 0.77 0.78 0.70 0.70 1.11 0.74 0.45 0.77 0.95 0.46 0.08 0.06 0.08 0.28 0.40 0.54 0.59 0.68 0.42 0.62 0.73 0.59 0.44 0.31 0.19 0.13 0.15 0.02 0.10 0.13 0.15 0.10 0.08 0.02 0.02 0.09 0.05 0.03 0.02 0.00 0.00
1.79 1.53 1.32 1.13 0.87 1.01 1.49 1.65 1.49 1.36 1.05 0.88 0.72 0.66 0.74 0.73 0.74 1.23 0.84 0.58 0.91 0.96 0.51 0.14 0.08 0.03 0.10 0.22 0.41 0.63 0.47 0.35 0.51 0.53 0.98 0.75 0.48 0.22 0.23 0.15 0.09 0.06 0.10 0.20 0.16 0.03 0.01 0.01 0.01 0.03 0.06 0.05 0.01 0.00
2.21 1.75 1.45 1.44 1.36 0.98 1.14 1.83 1.96 1.66 1.28 0.93 0.73 0.71 0.61 0.64 0.81 1.19 0.75 0.54 0.98 1.50 1.58 0.36 0.04 0.01 0.04 0.19 0.30 0.37 0.53 0.40 0.46 0.68 1.23 1.34 0.72 0.20 0.11 0.10 0.08 0.06 0.08 0.10 0.09 0.02 0.02 0.01 0.01 0.01 0.01 0.01 0.01 0.00
2.74 2.38 1.76 1.41 1.52 1.65 1.32 1.36 1.36 1.31 1.19 0.80 0.68 0.73 0.72 0.81 1.05 1.07 0.68 0.59 0.65 1.31 1.53 0.55 0.15 0.04 0.03 0.17 0.34 0.41 0.55 0.81 0.80 1.11 1.37 0.88 0.38 0.31 0.24 0.22 0.20 0.09 0.15 0.17 0.13 0.01 0.04 0.04 0.01 0.01 0.02 0.01 0.00 0.00
3.11 3.18 2.96 2.16 1.58 1.53 1.72 1.42 1.34 1.16 1.03 0.67 0.67 0.83 0.92 0.95 1.55 1.70 2.51 1.49 0.75 1.01 2.59 1.89 0.60 0.17 0.10 0.23 0.43 0.57 0.58 0.69 1.18 1.55 1.29 0.68 0.26 0.71 1.28 0.45 0.12 0.10 0.04 0.04 0.05 0.02 0.04 0.03 0.01 0.01 0.01 0.01 0.01 0.00
2.64 2.98 3.65 3.72 2.67 2.10 2.17 1.59 1.37 1.23 1.08 0.85 0.89 0.90 0.88 1.12 1.53 1.97 2.41 1.39 1.08 1.57 3.55 3.13 1.64 0.58 0.25 0.35 0.66 0.80 0.81 0.88 1.13 1.69 1.24 0.71 0.43 1.40 1.89 0.82 0.11 0.02 0.01 0.01 0.02 0.08 0.11 0.01 0.02 0.01 0.02 0.01 0.02 0.01
2.19 2.43 2.88 3.86 4.03 3.39 2.71 1.95 1.50 1.39 1.30 1.12 1.12 1.15 1.28 1.77 2.06 1.93 1.27 0.97 1.26 2.24 3.34 3.43 1.83 0.79 0.54 0.65 0.93 0.95 0.95 1.06 1.26 1.42 0.99 0.56 0.78 1.42 1.49 0.26 0.05 0.04 0.03 0.01 0.01 0.02 0.06 0.03 0.02 0.04 0.06 0.04 0.04 0.02
2.01 1.94 2.10 2.66 2.99 3.49 3.61 3.26 2.23 1.76 1.73 1.82 2.13 2.44 2.91 2.84 2.26 1.80 1.47 1.59 1.66 3.13 5.01 3.07 1.14 0.80 0.74 0.56 0.72 0.87 1.06 1.51 1.42 1.08 0.88 0.88 0.92 1.02 0.50 0.16 0.04 0.02 0.08 0.09 0.03 0.00 0.01 0.03 0.03 0.01 0.02 0.04 0.06 0.07
1.89 1.72 1.66 2.02 1.77 2.12 2.96 3.19 3.29 2.74 2.65 3.24 3.45 3.68 3.75 2.99 2.40 2.50 3.39 4.37 5.02 4.63 3.62 1.94 0.74 0.76 0.74 0.66 1.06 1.29 1.41 1.41 1.31 0.74 0.86 1.23 0.70 0.29 0.10 0.03 0.04 0.07 0.08 0.08 0.15 0.12 0.09 0.10 0.05 0.04 0.05 0.05 0.06 0.06
1.58 1.58 1.45 1.85 1.43 1.42 1.97 3.20 3.34 3.40 3.76 3.89 3.56 3.02 3.00 2.67 3.33 4.23 4.81 4.46 4.15 3.53 2.30 1.34 0.89 0.65 0.56 0.79 1.10 1.39 1.59 1.36 1.33 0.58 0.95 0.96 0.47 0.15 0.09 0.06 0.04 0.05 0.07 0.07 0.13 0.17 0.18 0.22 0.19 0.14 0.11 0.10 0.07 0.07
1.46 1.43 1.41 1.75 1.34 1.33 1.50 2.35 3.20 3.84 4.01 3.45 2.81 2.79 3.40 3.75 4.40 4.27 3.37 2.25 2.06 1.68 1.25 0.89 0.47 0.44 0.70 1.00 1.63 2.02 1.75 1.45 1.04 0.67 1.13 0.47 0.13 0.02 0.07 0.11 0.14 0.16 0.16 0.17 0.18 0.28 0.31 0.35 0.33 0.27 0.21 0.18 0.16 0.14
1.70 1.46 1.48 1.75 1.39 1.45 1.62 1.84 2.07 3.25 3.44 3.40 3.59 4.00 3.71 3.33 3.13 2.35 1.42 0.97 0.80 0.60 0.53 0.47 0.47 0.63 0.86 1.22 2.06 1.95 1.88 1.29 0.79 0.96 0.60 0.17 0.04 0.11 0.20 0.16 0.10 0.06 0.11 0.26 0.42 0.53 0.46 0.32 0.23 0.25 0.34 0.35 0.36 0.34
1.84 1.56 1.74 1.96 1.61 1.67 1.86 1.98 2.41 3.25 3.60 4.40 4.18 3.80 2.50 1.84 0.92 0.45 0.36 0.33 0.23 0.31 0.42 0.38 0.67 0.81 0.91 1.26 1.53 1.70 1.11 1.02 0.98 0.56 0.21 0.12 0.18 0.27 0.25 0.22 0.21 0.15 0.17 0.34 0.48 0.46 0.39 0.41 0.40 0.38 0.42 0.46 0.45 0.51
2.00 2.03 2.47 2.46 2.13 2.10 2.03 2.44 3.23 3.41 3.91 4.00 3.44 2.26 1.28 0.65 0.39 0.35 0.28 0.32 0.46 0.51 0.57 0.68 0.92 0.93 1.18 1.59 1.37 1.33 1.34 0.78 0.27 0.15 0.17 0.26 0.41 0.53 0.55 0.54 0.51 0.39 0.39 0.53 0.69 0.68 0.63 0.41 0.35 0.52 0.70 0.69 0.53 0.54
2.56 3.20 3.31 2.66 2.45 2.57 2.65 3.46 4.46 4.37 4.39 3.64 2.91 1.65 0.75 0.45 0.41 0.44 0.44 0.50 0.58 0.62 0.77 1.25 1.43 1.44 1.58 1.54 1.39 0.88 0.71 0.38 0.31 0.47 0.59 0.58 0.71 0.80 0.83 0.85 0.90 0.91 0.90 0.84 1.17 1.32 1.05 0.73 0.64 0.63 0.63 0.78 0.71 0.62
3.77 3.68 2.68 2.14 2.57 3.09 3.46 4.52 5.56 5.55 4.94 3.88 1.79 0.83 0.72 0.67 0.69 0.73 0.65 0.67 0.70 1.02 1.09 1.68 1.96 1.22 1.02 1.12 0.52 0.27 0.32 0.32 0.52 0.74 0.83 0.83 0.87 0.78 0.67 0.75 0.90 1.07 1.23 1.05 1.11 1.21 1.30 1.09 0.68 0.38 0.50 0.54 0.42 0.40
3.14 2.15 1.80 2.33 3.37 4.61 6.11 5.61 5.20 4.90 3.73 1.97 0.82 0.49 0.48 0.56 0.55 0.46 0.45 0.56 0.88 1.11 1.23 1.67 1.48 1.35 1.06 0.66 0.34 0.29 0.34 0.39 0.51 0.63 0.81 0.87 0.79 0.81 0.75 0.82 0.87 0.83 0.81 0.75 0.65 0.59 0.47 0.32 0.33 0.42 0.43 0.37 0.31 0.31
2.07 1.72 1.91 2.59 3.27 4.62 5.50 5.34 4.22 3.55 1.73 0.78 0.47 0.36 0.31 0.36 0.31 0.36 0.39 0.49 0.78 0.82 1.12 1.30 1.51 1.09 0.55 0.39 0.38 0.38 0.43 0.47 0.58 0.63 0.75 0.72 0.60 0.55 0.47 0.41 0.38 0.35 0.36 0.35 0.30 0.31 0.28 0.22 0.24 0.21 0.22 0.12 0.11 0.09
2.92 2.69 2.55 2.85 2.99 4.53 4.95 4.24 3.01 1.70 0.86 0.44 0.38 0.31 0.29 0.46 0.38 0.27 0.27 0.29 0.39 0.88 1.56 1.45 0.89 0.63 0.71 0.75 0.71 0.61 0.68 0.70 0.53 0.39 0.43 0.36 0.24 0.12 0.06 0.04 0.04 0.02 0.03 0.03 0.05 0.04 0.04 0.03 0.03 0.02 0.01 0.01 0.02 0.04
5.36 4.79 4.70 4.90 5.75 5.80 4.51 2.62 1.79 1.17 0.60 0.43 0.37 0.31 0.41 0.33 0.41 0.42 0.49 0.48 1.06 1.64 1.33 0.82 0.69 0.77 0.75 0.76 0.82 0.76 0.71 0.43 0.24 0.15 0.12 0.07 0.03 0.01 0.00 0.00 0.00 0.00 0.00 0.00 0.01 0.00 0.01 0.02 0.01 0.01 0.01 0.02 0.03 0.05
5.47 5.44 6.72 6.66 6.82 6.15 4.48 2.48 1.29 0.81 0.65 0.65 0.46 0.46 0.62 0.54 0.48 0.61 0.85 1.21 1.51 1.00 0.73 0.65 0.65 0.67 0.55 0.53 0.44 0.30 0.23 0.08 0.05 0.03 0.02 0.02 0.02 0.01 0.01 0.00 0.01 0.01 0.01 0.02 0.02 0.02 0.02 0.03 0.01 0.01 0.03 0.03 0.04 0.04
4.40 4.64 5.07 5.39 5.39 4.63 3.42 1.65 1.17 0.94 0.66 0.61 0.54 0.69 0.73 0.62 0.57 0.69 1.13 1.10 0.83 0.70 0.62 0.52 0.47 0.35 0.27 0.20 0.13 0.07 0.08 0.07 0.03 0.01 0.00 0.00 0.00 0.00 0.00 0.00 0.01 0.01 0.01 0.01 0.01 0.01 0.02 0.01 0.02 0.02 0.03 0.04 0.04 0.04
4.68 5.39 5.30 4.82 3.60 2.95 2.15 1.63 1.04 0.70 0.76 0.68 0.70 0.68 0.65 0.56 0.67 0.83 0.72 0.35 0.49 0.61 0.57 0.62 0.49 0.31 0.22 0.18 0.17 0.16 0.12 0.09 0.08 0.07 0.04 0.02 0.01 0.00 0.00 0.00 0.01 0.02 0.03 0.02 0.01 0.02 0.02 0.03 0.04 0.06 0.07 0.10 0.11 0.09
7.50 7.33 4.53 3.87 2.51 1.39 0.83 0.61 0.52 0.38 0.34 0.29 0.43 0.51 0.50 0.58 0.64 0.61 0.33 0.31 0.42 0.52 0.60 0.58 0.48 0.39 0.28 0.23 0.18 0.15 0.15 0.18 0.13 0.13 0.15 0.15 0.08 0.04 0.03 0.02 0.01 0.03 0.01 0.03 0.05 0.06 0.06 0.07 0.09 0.12 0.14 0.16 0.19 0.21
5.26 3.66 2.71 1.31 0.75 0.31 0.28 0.25 0.20 0.16 0.15 0.26 0.36 0.39 0.47 0.53 0.59 0.45 0.22 0.30 0.45 0.58 0.58 0.46 0.33 0.24 0.19 0.17 0.15 0.15 0.12 0.15 0.17 0.20 0.25 0.27 0.25 0.20 0.13 0.08 0.05 0.04 0.04 0.12 0.23 0.25 0.19 0.14 0.14 0.16 0.18 0.17 0.23 0.33
2.96 1.92 0.96 0.34 0.12 0.06 0.07 0.08 0.08 0.10 0.24 0.33 0.31 0.31 0.45 0.72 0.47 0.24 0.24 0.34 0.43 0.53 0.54 0.47 0.30 0.22 0.20 0.20 0.22 0.24 0.22 0.22 0.22 0.18 0.24 0.33 0.32 0.28 0.30 0.35 0.36 0.26 0.33 0.41 0.39 0.39 0.39 0.33 0.29 0.27 0.31 0.29 0.30 0.39
1.14 0.37 0.31 0.26 0.10 0.06 0.09 0.12 0.14 0.18 0.22 0.22 0.19 0.30 0.44 0.35 0.20 0.22 0.30 0.40 0.49 0.50 0.50 0.50 0.40 0.31 0.29 0.27 0.28 0.31 0.32 0.32 0.35 0.37 0.42 0.46 0.45 0.40 0.36 0.49 0.65 0.73 0.73 0.66 0.72 0.77 0.68 0.61 0.53 0.47 0.46 0.47 0.40 0.40
0.46 0.28 0.14 0.17 0.20 0.22 0.20 0.16 0.16 0.14 0.10 0.14 0.16 0.18 0.20 0.16 0.17 0.23 0.31 0.39 0.47 0.48 0.46 0.43 0.43 0.38 0.36 0.35 0.39 0.46 0.45 0.39 0.33 0.37 0.28 0.25 0.32 0.44 0.50 0.54 0.69 0.78 0.75 0.79 0.71 0.73 0.83 0.87 0.89 0.86 0.74 0.61 0.50 0.50
0.31 0.20 0.17 0.16 0.15 0.16 0.15 0.11 0.10 0.12 0.10 0.09 0.07 0.08 0.09 0.14 0.22 0.29 0.32 0.37 0.44 0.48 0.50 0.49 0.46 0.44 0.44 0.42 0.43 0.46 0.48 0.47 0.46 0.46 0.62 0.47 0.34 0.44 0.61 0.69 0.73 0.76 0.83 0.85 0.78 0.78 0.78 0.81 0.79 0.72 0.67 0.62 0.57 0.52
0.22 0.18 0.17 0.19 0.21 0.21 0.23 0.27 0.25 0.19 0.16 0.16 0.14 0.12 0.12 0.16 0.22 0.28 0.30 0.34 0.41 0.47 0.50 0.51 0.50 0.50 0.48 0.50 0.49 0.48 0.51 0.53 0.57 0.56 0.58 0.76 0.78 0.76 0.74 0.78 0.86 0.98 0.96 0.85 0.75 0.67 0.61 0.60 0.56 0.53 0.53 0.52 0.51 0.48
0.32 0.27 0.16 0.19 0.28 0.34 0.36 0.36 0.33 0.29 0.29 0.24 0.24 0.23 0.22 0.17 0.18 0.22 0.29 0.32 0.36 0.40 0.45 0.44 0.38 0.39 0.42 0.43 0.48 0.56 0.58 0.59 0.65 0.71 0.81 0.92 0.90 0.75 0.74 0.81 0.90 0.98 0.94 0.84 0.71 0.65 0.62 0.65 0.67 0.64 0.62 0.57 0.51 0.46
0.50 0.41 0.34 0.31 0.36 0.41 0.39 0.36 0.47 0.46 0.37 0.31 0.27 0.24 0.20 0.16 0.17 0.21 0.27 0.27 0.29 0.33 0.37 0.39 0.43 0.45 0.48 0.50 0.54 0.61 0.65 0.68 0.68 0.82 1.07 1.12 1.10 1.08 1.07 1.01 0.85 0.80 0.76 0.71 0.68 0.73 0.74 0.73 0.67 0.63 0.61 0.57 0.50 0.47